DW4078 Weather Reports


Display with metric or nautical units.
time (UTC)temp
F
wind
direction
speed
MPH
gust
MPH
rain 1hr
in
rain 24hr
in
rain mn
in
humidity
%
barometer
mb
20260904195803 77 151 1.0 4.0 0.00 1.46 0.47 85 1014.4
20260904195703 77 149 1.0 4.0 0.00 1.46 0.47 87 1014.6
20260904195603 77 153 1.0 4.0 0.00 1.46 0.47 85 1014.8
20260904195503 77 152 1.0 4.0 0.00 1.46 0.47 87 1014.5
20260904195404 77 155 1.0 4.0 0.00 1.46 0.47 86 1014.7
20260904195325 77 153 1.0 4.0 0.00 1.46 0.47 86 1014.6
20260904195225 77 151 1.0 4.0 0.00 1.46 0.47 86 1014.8
20260904195103 77 143 1.0 3.0 0.00 1.46 0.47 86 1014.7
20260904195024 77 142 1.0 3.0 0.00 1.46 0.47 85 1014.5
20260904194903 76 150 1.0 3.0 0.00 1.46 0.47 86 1014.7
20260904194803 76 144 1.0 3.0 0.00 1.46 0.47 87 1014.9
20260904194703 76 162 1.0 3.0 0.00 1.46 0.47 86 1015.1
20260904194604 76 156 1.0 3.0 0.00 1.46 0.47 86 1014.9
20260904194503 77 155 1.0 3.0 0.00 1.47 0.47 86 1015.1
20260904194403 77 150 1.0 2.0 0.00 1.48 0.47 85 1015.0
20260904194302 77 148 1.0 2.0 0.00 1.49 0.47 85 1014.9
20260904194203 77 161 0.0 2.0 0.00 1.51 0.47 85 1014.9
20260904194103 77 154 0.0 2.0 0.00 1.51 0.47 85 1015.0
20260904194003 77 152 0.0 2.0 0.00 1.51 0.47 84 1015.1
20260904193903 77 148 1.0 3.0 0.00 1.52 0.47 85 1015.1
20260904193803 77 150 1.0 3.0 0.00 1.52 0.47 86 1015.0
20260904193703 76 146 1.0 4.0 0.00 1.52 0.47 85 1015.0
20260904193603 76 151 1.0 4.0 0.00 1.52 0.47 86 1015.1
20260904193504 76 147 1.0 4.0 0.00 1.53 0.47 88 1015.1
20260904193404 75 148 1.0 4.0 0.00 1.53 0.47 88 1015.0
20260904193303 75 148 1.0 4.0 0.00 1.53 0.47 88 1015.0
20260904193203 75 149 1.0 4.0 0.00 1.53 0.47 88 1015.0
20260904193104 75 159 1.0 4.0 0.00 1.53 0.47 89 1015.0
20260904193024 75 162 1.0 4.0 0.00 1.53 0.47 89 1015.0
20260904192925 75 169 2.0 4.0 0.00 1.53 0.47 88 1015.1
20260904192803 75 182 1.0 4.0 0.00 1.53 0.47 88 1015.1
20260904192703 75 187 1.0 4.0 0.00 1.53 0.47 88 1015.1
20260904192624 75 190 1.0 3.0 0.00 1.53 0.47 89 1015.1
20260904192504 75 195 1.0 3.0 0.00 1.53 0.47 89 1015.3
20260904192403 75 199 1.0 3.0 0.00 1.53 0.47 88 1015.3
20260904192306 75 201 1.0 3.0 0.00 1.53 0.47 89 1015.4
20260904192204 75 205 1.0 3.0 0.00 1.53 0.47 89 1015.4
20260904192124 75 198 1.0 3.0 0.00 1.53 0.47 89 1015.4
20260904192003 75 205 1.0 3.0 0.00 1.53 0.47 90 1015.4
20260904191903 75 193 1.0 3.0 0.00 1.53 0.47 90 1015.5
20260904191804 75 151 0.0 3.0 0.00 1.53 0.47 91 1015.5
20260904191703 75 135 0.0 3.0 0.00 1.53 0.47 92 1015.5
20260904191603 75 135 0.0 3.0 0.00 1.53 0.47 93 1015.6
20260904191525 74 134 0.0 3.0 0.00 1.53 0.47 93 1015.4
20260904191403 74 122 0.0 3.0 0.00 1.53 0.47 94 1015.6
20260904191303 74 152 1.0 3.0 0.00 1.53 0.47 94 1015.9
20260904191204 74 152 1.0 3.0 0.00 1.53 0.47 94 1015.6
20260904191124 74 168 1.0 3.0 0.00 1.53 0.47 94 1015.9
20260904191003 74 168 1.0 4.0 0.00 1.53 0.47 95 1015.7
20260904190904 74 167 1.0 4.0 0.00 1.53 0.47 95 1015.7
20260904190824 74 176 1.0 4.0 0.00 1.53 0.47 95 1015.7
20260904190704 73 171 1.0 4.0 0.00 1.53 0.47 95 1015.7
20260904190624 73 178 1.0 4.0 0.00 1.53 0.47 95 1015.7
20260904190524 73 181 2.0 4.0 0.00 1.53 0.47 95 1015.9
20260904190403 73 189 2.0 4.0 0.00 1.53 0.47 95 1016.0
20260904190325 73 188 2.0 4.0 0.00 1.53 0.47 95 1016.1
20260904190204 73 197 2.0 4.0 0.00 1.53 0.47 95 1016.1
20260904190104 73 189 2.0 4.0 0.00 1.53 0.47 95 1016.2
20260904190025 73 188 2.0 4.0 0.00 1.53 0.47 96 1016.2
20260904185904 73 188 2.0 4.0 0.00 1.53 0.47 96 1016.1
20260904185803 73 188 2.0 4.0 0.00 1.53 0.47 96 1016.0
20260904185703 73 197 2.0 4.0 0.00 1.53 0.47 96 1016.0
20260904185602 73 196 2.0 4.0 0.00 1.53 0.47 96 1016.1
20260904185503 73 193 2.0 4.0 0.00 1.53 0.47 97 1016.0
20260904185403 73 194 2.0 4.0 0.00 1.53 0.47 97 1016.0
20260904185306 73 188 1.0 4.0 0.00 1.53 0.47 97 1015.9
20260904185203 73 176 1.0 4.0 0.00 1.53 0.47 97 1015.7
20260904185103 73 170 1.0 4.0 0.00 1.53 0.47 97 1015.6
20260904185004 73 168 1.0 4.0 0.00 1.53 0.47 97 1015.9
20260904184904 73 164 1.0 4.0 0.00 1.53 0.47 97 1015.9
20260904184803 73 164 1.0 4.0 0.00 1.53 0.47 97 1015.6
20260904184704 73 156 1.0 4.0 0.00 1.53 0.47 97 1015.6
20260904184603 73 145 1.0 3.0 0.00 1.53 0.47 97 1015.6
20260904184504 73 142 1.0 3.0 0.00 1.53 0.47 97 1015.5
20260904184404 73 141 1.0 3.0 0.00 1.53 0.47 97 1015.4
20260904184303 73 143 1.0 3.0 0.00 1.53 0.47 97 1015.7
20260904184204 73 138 1.0 3.0 0.00 1.53 0.47 98 1015.4
20260904184103 73 139 1.0 3.0 0.00 1.53 0.47 97 1015.3
20260904184003 73 130 1.0 2.0 0.00 1.53 0.47 98 1015.1
20260904183903 73 130 1.0 2.0 0.00 1.53 0.47 98 1015.4
20260904183825 73 129 1.0 2.0 0.00 1.53 0.47 98 1015.4
20260904183703 73 129 1.0 2.0 0.00 1.53 0.47 98 1015.1
20260904183603 73 129 1.0 2.0 0.00 1.53 0.47 98 1015.2
20260904183504 73 129 1.0 2.0 0.00 1.53 0.47 98 1015.2
20260904183424 73 129 0.0 2.0 0.00 1.53 0.47 97 1015.0
20260904183303 73 127 0.0 2.0 0.00 1.53 0.47 98 1015.2
20260904183203 72 128 0.0 2.0 0.00 1.53 0.47 98 1015.1
20260904183103 72 132 0.0 2.0 0.00 1.53 0.47 98 1015.4
20260904183024 73 134 0.0 2.0 0.00 1.53 0.47 98 1015.3
20260904182903 73 132 0.0 2.0 0.00 1.53 0.47 98 1015.4
20260904182803 73 136 0.0 2.0 0.00 1.53 0.47 98 1015.5
20260904182702 72 127 0.0 2.0 0.00 1.53 0.47 98 1015.5
20260904182624 72 127 0.0 3.0 0.00 1.53 0.47 98 1015.7
20260904182503 72 126 0.0 3.0 0.00 1.53 0.47 98 1015.5
20260904182403 72 126 1.0 3.0 0.00 1.53 0.47 98 1015.9
20260904182306 72 128 1.0 3.0 0.00 1.53 0.47 98 1015.6
20260904182203 72 128 1.0 3.0 0.00 1.53 0.47 98 1015.9
20260904182103 72 128 1.0 3.0 0.00 1.53 0.47 98 1015.7
20260904182024 72 128 1.0 3.0 0.00 1.53 0.47 98 1015.6
20260904181903 72 128 1.0 3.0 0.00 1.53 0.47 98 1015.4
20260904181804 72 127 1.0 3.0 0.00 1.53 0.47 98 1015.4
20260904181704 72 130 1.0 3.0 0.00 1.53 0.47 98 1015.5
20260904181603 72 130 1.0 2.0 0.00 1.53 0.47 98 1015.7
20260904181504 72 138 1.0 3.0 0.00 1.53 0.47 98 1016.0
20260904181403 72 163 1.0 4.0 0.00 1.53 0.47 98 1016.0
20260904181303 72 177 1.0 4.0 0.00 1.53 0.47 98 1016.2
20260904181203 72 185 1.0 4.0 0.00 1.53 0.47 98 1016.3
20260904181103 72 182 1.0 4.0 0.00 1.53 0.47 98 1016.3
20260904181025 72 182 1.0 4.0 0.00 1.53 0.47 98 1016.3
20260904180904 72 187 1.0 4.0 0.00 1.53 0.47 98 1016.7
20260904180803 72 190 1.0 4.0 0.00 1.53 0.47 98 1016.6
20260904180703 72 185 1.0 4.0 0.00 1.53 0.47 98 1016.9
20260904180602 72 188 1.0 4.0 0.00 1.53 0.47 98 1016.9
20260904180503 72 185 1.0 4.0 0.00 1.53 0.47 98 1017.1
20260904180404 72 170 1.0 4.0 0.00 1.53 0.47 98 1016.9
20260904180304 72 164 1.0 3.0 0.00 1.53 0.47 98 1017.0
20260904180203 72 163 1.0 3.0 0.00 1.53 0.47 98 1017.1
20260904180003 72 144 1.0 3.0 0.00 1.53 0.47 98 1017.0
20260904175904 72 143 1.0 3.0 0.00 1.53 0.47 98 1016.9
20260904175803 72 128 1.0 3.0 0.00 1.53 0.47 98 1016.9
20260904175702 72 118 1.0 3.0 0.00 1.53 0.47 98 1017.3
20260904175604 72 101 1.0 3.0 0.00 1.53 0.47 98 1017.2
20260904175504 72 113 1.0 3.0 0.00 1.53 0.47 98 1017.2
20260904175403 72 64 1.0 4.0 0.00 1.53 0.47 98 1017.1
20260904175305 72 57 1.0 4.0 0.00 1.53 0.47 98 1017.3
20260904175204 72 58 1.0 4.0 0.00 1.53 0.47 98 1017.4
20260904175103 72 64 1.0 4.0 0.01 1.53 0.47 98 1017.2
20260904175003 72 85 1.0 4.0 0.01 1.53 0.47 98 1017.3
20260904174903 72 91 1.0 4.0 0.01 1.53 0.47 98 1017.4
20260904174803 72 148 1.0 4.0 0.01 1.53 0.47 98 1017.4
20260904174703 72 143 1.0 4.0 0.03 1.53 0.47 98 1017.4
20260904174603 72 153 1.0 4.0 0.04 1.53 0.47 98 1017.4
20260904174504 72 161 1.0 4.0 0.06 1.53 0.47 98 1017.4
20260904174404 72 168 1.0 2.0 0.07 1.53 0.47 98 1017.3
20260904174303 72 173 1.0 2.0 0.07 1.53 0.47 98 1017.4
20260904174204 72 161 1.0 2.0 0.07 1.53 0.47 98 1017.2
20260904174104 72 146 1.0 2.0 0.07 1.53 0.47 98 1017.6
20260904174024 72 122 1.0 2.0 0.07 1.53 0.47 98 1017.3
20260904173904 72 105 1.0 2.0 0.07 1.53 0.47 99 1017.5
20260904173824 72 105 1.0 2.0 0.07 1.53 0.47 99 1017.6
20260904173704 72 105 1.0 2.0 0.07 1.53 0.47 99 1017.4
20260904173603 72 96 1.0 2.0 0.07 1.53 0.47 98 1017.4
20260904173503 72 85 0.0 2.0 0.07 1.53 0.47 99 1017.5
20260904173403 72 83 0.0 2.0 0.07 1.53 0.47 99 1017.5
20260904173324 72 82 0.0 2.0 0.07 1.53 0.47 99 1017.4
20260904173225 72 82 0.0 2.0 0.07 1.53 0.47 99 1017.5
20260904173124 72 95 0.0 2.0 0.07 1.53 0.47 99 1017.3
20260904173024 72 97 0.0 2.0 0.07 1.53 0.47 99 1017.3
20260904172903 72 79 0.0 3.0 0.07 1.53 0.47 99 1017.3
20260904172803 72 74 0.0 4.0 0.07 1.53 0.47 99 1017.3
20260904172703 72 64 1.0 4.0 0.07 1.53 0.47 99 1017.4
20260904172604 72 68 1.0 4.0 0.07 1.53 0.47 99 1017.2
20260904172503 72 71 1.0 4.0 0.07 1.53 0.47 99 1017.3
20260904172403 72 74 1.0 4.0 0.07 1.53 0.47 99 1017.3
20260904172305 72 76 1.0 4.0 0.07 1.53 0.47 99 1017.6
20260904172204 72 72 1.0 4.0 0.07 1.53 0.47 99 1017.2
20260904172103 72 70 1.0 4.0 0.07 1.53 0.47 99 1017.3
20260904172024 72 70 1.0 4.0 0.07 1.53 0.47 99 1017.3
20260904171925 72 70 1.0 4.0 0.07 1.53 0.47 99 1017.4
20260904171803 72 76 1.0 3.0 0.07 1.53 0.47 99 1017.2
20260904171703 72 77 1.0 3.0 0.07 1.53 0.47 99 1017.4
20260904171603 72 79 1.0 3.0 0.07 1.53 0.47 99 1017.4
20260904171504 72 77 1.0 3.0 0.07 1.53 0.47 99 1017.4
20260904171404 72 75 1.0 3.0 0.07 1.53 0.47 99 1017.3
20260904171303 72 70 1.0 3.0 0.07 1.53 0.47 99 1017.4
20260904171204 72 74 1.0 3.0 0.07 1.53 0.47 99 1017.5
20260904171103 72 60 1.0 3.0 0.07 1.53 0.47 99 1017.5
20260904171003 72 62 1.0 3.0 0.07 1.53 0.47 99 1017.6
20260904170903 72 59 1.0 3.0 0.07 1.53 0.47 99 1017.7
20260904170824 72 54 1.0 3.0 0.07 1.53 0.47 99 1017.8
20260904170703 72 55 1.0 2.0 0.07 1.53 0.47 99 1017.9
20260904170603 72 41 1.0 2.0 0.07 1.53 0.47 99 1017.6
20260904170503 72 8 1.0 2.0 0.07 1.53 0.47 99 1017.5
20260904170403 72 36 1.0 2.0 0.07 1.53 0.47 99 1017.6
20260904170304 72 23 1.0 2.0 0.07 1.53 0.47 99 1017.4
20260904170224 72 357 0.0 2.0 0.07 1.53 0.47 99 1017.7
20260904170004 72 71 0.0 2.0 0.07 1.53 0.47 99 1017.5
20260904165903 71 60 0.0 2.0 0.07 1.53 0.47 99 1017.5
20260904165803 71 71 0.0 2.0 0.07 1.53 0.47 99 1017.4
20260904165724 71 79 0.0 2.0 0.07 1.53 0.47 99 1017.4
20260904165603 71 80 0.0 2.0 0.07 1.53 0.47 99 1017.5
20260904165503 71 77 0.0 2.0 0.07 1.53 0.47 99 1017.6
20260904165403 71 76 0.0 3.0 0.07 1.53 0.47 99 1017.4
20260904165305 71 89 0.0 3.0 0.07 1.53 0.47 99 1017.5
20260904165204 71 87 1.0 3.0 0.07 1.53 0.47 99 1017.4
20260904165104 71 96 1.0 3.0 0.06 1.52 0.46 99 1017.4
20260904165003 71 93 1.0 3.0 0.06 1.52 0.46 99 1017.4
20260904164904 71 76 1.0 6.0 0.06 1.52 0.46 99 1017.4
20260904164803 71 88 1.0 6.0 0.06 1.52 0.46 99 1017.3
20260904164725 71 45 1.0 6.0 0.04 1.50 0.45 99 1017.3
20260904164604 71 134 1.0 6.0 0.03 1.49 0.43 99 1017.5
20260904164525 71 116 2.0 6.0 0.01 1.47 0.42 99 1017.6
20260904164403 71 121 2.0 6.0 0.00 1.46 0.40 99 1017.7
20260904164324 71 120 2.0 6.0 0.00 1.46 0.40 99 1017.7
20260904164204 71 137 2.0 6.0 0.00 1.46 0.40 99 1017.8
20260904164103 71 108 1.0 6.0 0.00 1.46 0.40 99 1018.0
20260904164003 71 110 1.0 6.0 0.00 1.46 0.40 99 1018.0
20260904163904 71 118 1.0 6.0 0.00 1.46 0.40 99 1018.0
20260904163803 71 93 1.0 3.0 0.00 1.46 0.40 99 1017.9
20260904163703 71 83 1.0 3.0 0.00 1.46 0.40 99 1017.8
20260904163603 71 70 1.0 3.0 0.00 1.46 0.40 99 1017.8
20260904163524 71 67 1.0 3.0 0.00 1.46 0.40 99 1017.8
20260904163403 71 57 1.0 3.0 0.00 1.46 0.40 99 1017.6
20260904163304 71 62 1.0 3.0 0.00 1.46 0.40 99 1017.7
20260904163203 71 61 1.0 3.0 0.00 1.46 0.40 99 1017.6
20260904163124 71 69 1.0 3.0 0.00 1.46 0.40 99 1017.8
20260904163004 71 67 1.0 3.0 0.00 1.46 0.40 99 1017.8
20260904162903 71 61 1.0 3.0 0.00 1.46 0.40 99 1017.7
20260904162824 71 49 1.0 6.0 0.00 1.46 0.40 99 1017.7
20260904162724 71 57 1.0 6.0 0.00 1.46 0.40 99 1017.7
20260904162604 71 45 2.0 6.0 0.00 1.46 0.40 99 1017.6
20260904162504 71 31 2.0 6.0 0.00 1.46 0.40 99 1017.6
20260904162403 71 40 2.0 6.0 0.00 1.46 0.40 99 1017.7
20260904162305 71 33 2.0 6.0 0.00 1.46 0.40 99 1017.7
20260904162225 71 33 2.0 6.0 0.00 1.46 0.40 99 1017.9
20260904162103 71 30 2.0 6.0 0.00 1.46 0.40 99 1017.7
20260904162003 71 46 2.0 6.0 0.00 1.46 0.40 99 1017.7
20260904161904 71 48 2.0 6.0 0.00 1.46 0.40 99 1017.7
20260904161803 71 47 2.0 4.0 0.00 1.46 0.40 99 1017.7
20260904161702 71 339 2.0 4.0 0.00 1.46 0.40 99 1017.8
20260904161625 71 334 2.0 4.0 0.00 1.46 0.40 99 1017.7
20260904161504 71 331 2.0 4.0 0.00 1.46 0.40 99 1017.7
20260904161403 71 316 2.0 4.0 0.00 1.46 0.40 99 1017.7
20260904161303 71 299 2.0 4.0 0.00 1.46 0.40 99 1017.8
20260904161203 71 286 2.0 4.0 0.00 1.46 0.40 99 1017.7
20260904161103 71 329 2.0 4.0 0.00 1.46 0.40 99 1017.6
20260904161004 71 6 2.0 4.0 0.00 1.46 0.40 99 1017.9
20260904160903 71 15 2.0 4.0 0.00 1.46 0.40 99 1017.8
20260904160824 72 26 2.0 4.0 0.00 1.46 0.40 99 1017.9
20260904160703 72 66 1.0 4.0 0.00 1.46 0.40 99 1018.0
20260904160604 72 79 1.0 4.0 0.00 1.46 0.40 99 1017.9
20260904160504 72 61 2.0 6.0 0.00 1.46 0.40 99 1017.8
20260904160404 72 38 2.0 6.0 0.00 1.46 0.40 99 1018.1
20260904160303 71 40 2.0 6.0 0.00 1.46 0.40 99 1017.9
20260904160224 71 42 2.0 6.0 0.00 1.46 0.40 99 1018.0
20260904160104 71 38 2.0 6.0 0.00 1.46 0.40 99 1017.8
20260904160003 71 24 2.0 6.0 0.00 1.46 0.40 99 1018.0
20260904155903 72 24 2.0 6.0 0.00 1.46 0.40 99 1018.0
20260904155804 71 29 2.0 6.0 0.00 1.46 0.40 99 1018.1
20260904155703 71 19 2.0 6.0 0.00 1.46 0.40 99 1018.0
20260904155624 72 12 1.0 6.0 0.00 1.46 0.40 99 1018.0
20260904155503 72 51 1.0 4.0 0.00 1.46 0.40 99 1017.8
20260904155403 72 75 1.0 3.0 0.00 1.46 0.40 99 1017.9
20260904155306 72 71 1.0 3.0 0.01 1.46 0.40 99 1017.7
20260904155203 72 67 1.0 3.0 0.01 1.46 0.40 99 1017.9
20260904155103 72 63 1.0 3.0 0.01 1.46 0.40 99 1017.7
20260904155004 72 67 1.0 3.0 0.01 1.46 0.40 99 1017.7
20260904154903 72 71 1.0 3.0 0.01 1.46 0.40 99 1017.8
20260904154824 72 69 1.0 3.0 0.01 1.46 0.40 99 1017.8
20260904154702 72 87 1.0 3.0 0.01 1.46 0.40 99 1017.6
20260904154624 71 86 1.0 3.0 0.02 1.46 0.40 99 1017.6
20260904154524 71 81 1.0 3.0 0.02 1.46 0.40 99 1017.8
20260904154403 71 90 1.0 2.0 0.02 1.46 0.40 99 1017.7
20260904154303 71 92 0.0 2.0 0.02 1.46 0.40 99 1017.6
20260904154204 71 96 0.0 2.0 0.02 1.46 0.40 99 1017.6
20260904154125 71 96 0.0 2.0 0.02 1.46 0.40 99 1017.3
20260904154024 71 96 0.0 2.0 0.02 1.46 0.40 99 1017.4
20260904153903 71 96 0.0 2.0 0.02 1.46 0.40 99 1017.5
20260904153803 71 95 0.0 2.0 0.03 1.46 0.40 99 1017.6
20260904153724 71 95 0.0 2.0 0.03 1.46 0.40 99 1017.6
20260904153603 71 118 0.0 1.0 0.03 1.46 0.40 99 1017.4
20260904153504 71 124 0.0 1.0 0.03 1.46 0.40 99 1017.3
20260904153404 71 124 0.0 1.0 0.03 1.46 0.40 99 1017.1
20260904153303 71 124 0.0 1.0 0.03 1.46 0.40 99 1017.3
20260904153203 71 124 0.0 1.0 0.03 1.46 0.40 99 1017.0
20260904153104 71 121 0.0 1.0 0.03 1.46 0.40 99 1017.1
20260904153003 71 120 0.0 3.0 0.03 1.46 0.40 99 1017.1
20260904152903 71 122 0.0 3.0 0.04 1.46 0.40 99 1016.9
20260904152804 71 116 0.0 3.0 0.04 1.46 0.40 99 1016.8
20260904152703 71 116 0.0 3.0 0.04 1.46 0.40 99 1016.8
20260904152604 71 120 0.0 3.0 0.04 1.46 0.40 99 1016.8
20260904152504 71 124 1.0 3.0 0.05 1.46 0.40 99 1016.7
20260904152403 71 126 1.0 4.0 0.05 1.46 0.40 99 1016.8
20260904152306 71 124 1.0 4.0 0.05 1.46 0.40 99 1016.8
20260904152203 71 124 1.0 4.0 0.06 1.46 0.40 99 1016.6
20260904152103 71 124 1.0 4.0 0.06 1.46 0.40 99 1016.8
20260904152003 71 125 1.0 4.0 0.07 1.46 0.40 99 1016.7
20260904151924 71 125 1.0 4.0 0.07 1.46 0.40 99 1016.5
20260904151803 70 126 1.0 4.0 0.07 1.46 0.40 99 1016.4
20260904151703 70 127 1.0 4.0 0.07 1.46 0.40 99 1016.3
20260904151603 70 126 1.0 4.0 0.07 1.46 0.40 99 1016.4
20260904151503 70 122 0.0 4.0 0.08 1.46 0.40 99 1016.4
20260904151404 70 110 0.0 2.0 0.08 1.46 0.40 99 1016.8
20260904151324 70 111 0.0 2.0 0.08 1.46 0.40 99 1016.7
20260904151204 70 105 0.0 2.0 0.08 1.46 0.40 99 1016.7
20260904151103 70 105 0.0 2.0 0.08 1.46 0.40 99 1016.8
20260904151004 70 105 0.0 2.0 0.08 1.46 0.40 99 1016.7
20260904150903 70 0 0.0 0.0 0.09 1.46 0.40 99 1016.7
20260904150825 70 0 0.0 0.0 0.09 1.46 0.40 99 1016.7
20260904150704 70 0 0.0 0.0 0.09 1.46 0.40 99 1017.0
20260904150603 70 0 0.0 0.0 0.09 1.46 0.40 99 1016.9
20260904150504 70 103 0.0 1.0 0.09 1.46 0.40 99 1017.0
20260904150404 70 105 0.0 1.0 0.09 1.46 0.40 99 1017.1
20260904150303 70 105 0.0 1.0 0.09 1.46 0.40 99 1017.4
20260904150224 70 105 0.0 1.0 0.09 1.46 0.40 99 1017.4
20260904150003 69 105 0.0 1.0 0.09 1.46 0.40 99 1017.4
20260904145904 69 105 0.0 1.0 0.09 1.46 0.40 99 1017.3
20260904145804 69 105 0.0 1.0 0.09 1.46 0.40 99 1017.3
20260904145704 69 105 0.0 1.0 0.09 1.46 0.40 99 1017.5
20260904145604 69 105 0.0 1.0 0.09 1.46 0.40 99 1017.3
20260904145524 69 105 0.0 1.0 0.09 1.46 0.40 99 1017.4
20260904145404 69 0 0.0 0.0 0.09 1.46 0.40 99 1017.4
20260904145306 69 0 0.0 0.0 0.08 1.45 0.39 99 1017.4
20260904145203 69 0 0.0 0.0 0.08 1.45 0.39 99 1017.4
20260904145103 69 0 0.0 0.0 0.08 1.45 0.39 99 1017.5
20260904145004 69 110 0.0 1.0 0.08 1.45 0.39 99 1017.5
20260904144924 69 110 0.0 1.0 0.09 1.45 0.39 99 1017.4
20260904144803 69 110 0.0 1.0 0.09 1.45 0.39 99 1017.4
20260904144703 69 110 0.0 1.0 0.09 1.45 0.39 99 1017.5
20260904144604 69 110 0.0 1.0 0.08 1.44 0.38 99 1017.5
20260904144503 69 110 0.0 1.0 0.08 1.44 0.38 99 1017.4
20260904144403 69 110 0.0 1.0 0.09 1.44 0.38 99 1017.4
20260904144304 69 110 0.0 1.0 0.09 1.44 0.38 99 1017.4
20260904144203 69 110 0.0 1.0 0.09 1.44 0.38 99 1017.3
20260904144104 69 110 0.0 1.0 0.10 1.44 0.38 99 1017.4
20260904144004 69 0 0.0 0.0 0.12 1.44 0.38 99 1017.1
20260904143903 69 0 0.0 0.0 0.13 1.44 0.38 99 1017.2
20260904143804 69 0 0.0 0.0 0.14 1.43 0.37 99 1017.2
20260904143703 69 0 0.0 0.0 0.15 1.43 0.37 99 1017.2
20260904143603 69 0 0.0 0.0 0.17 1.43 0.37 99 1017.5
20260904143503 69 0 0.0 0.0 0.18 1.43 0.37 99 1017.4
20260904143403 69 0 0.0 0.0 0.20 1.43 0.37 99 1017.4
20260904143325 69 0 0.0 0.0 0.22 1.43 0.37 99 1017.3
20260904143204 69 0 0.0 0.0 0.25 1.43 0.37 99 1017.6
20260904143103 69 0 0.0 0.0 0.29 1.43 0.37 99 1017.6
20260904143003 69 0 0.0 0.0 0.30 1.43 0.37 99 1017.5
20260904142903 69 0 0.0 0.0 0.29 1.42 0.36 99 1017.6
20260904142804 69 0 0.0 0.0 0.30 1.42 0.36 99 1017.6
20260904142704 69 0 0.0 0.0 0.30 1.42 0.36 99 1017.5
20260904142603 69 0 0.0 0.0 0.31 1.42 0.36 99 1017.7
20260904142504 69 0 0.0 0.0 0.31 1.41 0.35 99 1017.6
20260904142404 69 119 0.0 1.0 0.34 1.41 0.35 99 1017.6
20260904142306 69 122 0.0 2.0 0.35 1.41 0.35 99 1017.6
20260904142203 69 124 0.0 2.0 0.34 1.40 0.34 99 1017.6
20260904142103 69 124 0.0 2.0 0.34 1.40 0.34 99 1017.6
20260904142003 69 124 0.0 2.0 0.33 1.39 0.33 99 1017.4
20260904141904 69 124 0.0 2.0 0.33 1.39 0.33 99 1017.6
20260904141803 69 124 0.0 2.0 0.33 1.39 0.33 99 1017.6
20260904141704 69 124 0.0 2.0 0.33 1.39 0.33 99 1017.6
20260904141603 69 124 0.0 2.0 0.33 1.39 0.33 99 1017.4
20260904141503 69 124 0.0 2.0 0.32 1.38 0.32 99 1017.4
20260904141404 69 125 0.0 2.0 0.32 1.38 0.32 99 1017.5
20260904141303 69 125 0.0 1.0 0.32 1.38 0.32 99 1017.2
20260904141203 69 123 0.0 1.0 0.32 1.38 0.32 99 1017.2
20260904141104 69 121 0.0 1.0 0.32 1.38 0.32 99 1017.4
20260904141004 69 0 0.0 0.0 0.32 1.38 0.32 99 1017.3
20260904140904 69 0 0.0 0.0 0.31 1.37 0.31 99 1017.2
20260904140803 69 0 0.0 0.0 0.31 1.37 0.31 99 1017.3
20260904140703 69 0 0.0 0.0 0.31 1.37 0.31 99 1017.2
20260904140603 69 0 0.0 0.0 0.31 1.37 0.31 99 1017.3
20260904140504 69 0 0.0 0.0 0.31 1.37 0.31 99 1017.3
20260904140403 69 0 0.0 0.0 0.31 1.37 0.31 99 1017.3
20260904140304 69 0 0.0 0.0 0.31 1.37 0.31 99 1017.5
20260904140204 69 102 0.0 1.0 0.31 1.37 0.31 99 1017.5
20260904140004 69 101 0.0 1.0 0.31 1.37 0.31 99 1017.4
20260904135904 69 101 0.0 1.0 0.31 1.37 0.31 99 1017.5
20260904135824 69 101 0.0 1.0 0.31 1.37 0.31 99 1017.5
20260904135703 69 101 0.0 1.0 0.31 1.37 0.31 99 1017.6
20260904135603 69 102 0.0 1.0 0.31 1.37 0.31 99 1017.6
20260904135524 69 115 0.0 1.0 0.31 1.37 0.31 99 1017.6
20260904135403 69 130 0.0 2.0 0.31 1.37 0.31 99 1017.8
20260904135305 69 143 0.0 2.0 0.31 1.37 0.31 99 1017.8
20260904135203 69 145 0.0 2.0 0.31 1.37 0.31 99 1017.8
20260904135103 69 151 0.0 2.0 0.31 1.37 0.31 99 1017.5
20260904135004 69 150 0.0 2.0 0.31 1.37 0.31 99 1017.5
20260904134904 69 153 1.0 2.0 0.30 1.36 0.30 99 1017.7
20260904134804 69 153 1.0 2.0 0.30 1.36 0.30 99 1017.7
20260904134703 69 152 1.0 2.0 0.30 1.36 0.30 99 1017.7
20260904134603 69 152 1.0 2.0 0.30 1.36 0.30 99 1017.6
20260904134503 69 154 1.0 2.0 0.30 1.36 0.30 99 1017.8
20260904134404 69 152 1.0 2.0 0.29 1.35 0.29 99 1017.8
20260904134303 69 142 1.0 2.0 0.29 1.35 0.29 99 1017.6
20260904134203 69 136 1.0 4.0 0.29 1.35 0.29 99 1017.6
20260904134103 69 126 1.0 4.0 0.28 1.34 0.28 99 1017.6
20260904134003 69 109 1.0 4.0 0.26 1.32 0.27 99 1017.5
20260904133904 69 85 1.0 4.0 0.25 1.31 0.25 99 1017.6
20260904133825 69 65 1.0 4.0 0.23 1.29 0.24 99 1017.5
20260904133703 69 47 1.0 4.0 0.22 1.28 0.22 99 1017.5
20260904133603 69 41 2.0 4.0 0.20 1.26 0.20 99 1017.5
20260904133504 69 29 2.0 4.0 0.19 1.25 0.19 99 1017.8
20260904133424 69 35 2.0 4.0 0.17 1.23 0.18 99 1017.9
20260904133303 69 30 2.0 4.0 0.15 1.21 0.15 99 1017.9
20260904133203 69 46 1.0 4.0 0.12 1.18 0.12 99 1018.1
20260904133104 69 36 1.0 4.0 0.08 1.14 0.08 99 1018.2
20260904133004 69 28 1.0 4.0 0.07 1.13 0.07 99 1018.0
20260904132903 69 55 1.0 3.0 0.07 1.13 0.07 99 1018.1
20260904132803 69 94 1.0 3.0 0.06 1.12 0.06 99 1018.1
20260904132703 69 111 0.0 3.0 0.06 1.12 0.06 99 1017.8
20260904132604 69 158 0.0 2.0 0.05 1.11 0.05 99 1017.8
20260904132503 69 151 0.0 2.0 0.04 1.10 0.04 99 1017.5
20260904132403 69 144 0.0 2.0 0.01 1.07 0.01 99 1017.3
20260904132306 69 150 0.0 3.0 0.00 1.06 0.00 99 1017.3
20260904132224 69 150 0.0 3.0 0.00 1.06 0.00 99 1017.3
20260904132103 69 147 0.0 3.0 0.00 1.06 0.00 99 1017.0
20260904132024 69 141 0.0 3.0 0.00 1.06 0.00 99 1016.9
20260904131904 69 137 0.0 3.0 0.00 1.06 0.00 99 1017.1
20260904131803 69 143 1.0 6.0 0.00 1.06 0.00 99 1016.9
20260904131703 69 142 1.0 6.0 0.00 1.06 0.00 99 1016.9
20260904131604 69 141 1.0 6.0 0.00 1.06 0.00 99 1016.6
20260904131503 69 139 1.0 6.0 0.00 1.06 0.00 99 1016.6
20260904131403 69 142 1.0 6.0 0.00 1.06 0.00 99 1016.7
20260904131304 69 137 1.0 6.0 0.00 1.06 0.00 99 1016.6
20260904131225 69 138 1.0 6.0 0.00 1.06 0.00 99 1016.8
20260904131104 69 142 1.0 6.0 0.00 1.06 0.00 99 1016.8
20260904131003 69 147 1.0 6.0 0.00 1.06 0.00 99 1016.6
20260904130903 69 153 1.0 6.0 0.00 1.06 0.00 99 1016.7
20260904130804 69 152 1.0 4.0 0.00 1.06 0.00 99 1016.6
20260904130703 69 154 1.0 4.0 0.00 1.06 0.00 99 1016.7
20260904130603 69 152 1.0 4.0 0.00 1.06 0.00 99 1016.8
20260904130504 69 151 1.0 4.0 0.00 1.06 0.00 99 1016.8
20260904130404 69 150 1.0 4.0 0.00 1.06 0.00 99 1016.7
20260904130324 69 150 1.0 4.0 0.00 1.06 0.00 99 1016.7
20260904130204 69 149 1.0 4.0 0.00 1.06 0.00 99 1016.8
20260904130004 69 148 1.0 4.0 0.00 1.06 0.00 99 1017.1
20260904125904 69 142 1.0 4.0 0.00 1.06 0.00 99 1017.1
20260904125803 69 133 0.0 2.0 0.00 1.06 0.00 99 1016.8
20260904125703 69 137 0.0 2.0 0.00 1.06 0.00 99 1017.0
20260904125603 69 140 0.0 2.0 0.00 1.06 0.00 99 1016.9
20260904125503 69 141 1.0 2.0 0.00 1.06 0.00 99 1017.0
20260904125403 69 139 1.0 2.0 0.00 1.06 0.00 99 1017.2
20260904125325 69 139 1.0 2.0 0.00 1.06 0.00 99 1017.2
20260904125224 69 139 1.0 2.0 0.00 1.06 0.00 99 1017.1
20260904125104 69 138 1.0 2.0 0.00 1.06 0.00 99 1017.0
20260904125024 69 138 1.0 2.0 0.00 1.06 0.00 99 1016.9
20260904124904 69 138 0.0 2.0 0.00 1.06 0.00 99 1017.1
20260904124804 69 139 0.0 2.0 0.00 1.06 0.00 99 1016.9
20260904124704 69 134 0.0 2.0 0.00 1.06 0.00 99 1017.0
20260904124603 69 128 0.0 2.0 0.00 1.06 0.00 99 1017.0
20260904124503 69 123 0.0 2.0 0.00 1.06 0.00 99 1016.9
20260904124404 69 122 0.0 2.0 0.00 1.06 0.00 99 1016.9
20260904124303 69 121 0.0 1.0 0.00 1.06 0.00 99 1016.7
20260904124203 69 120 0.0 1.0 0.00 1.06 0.00 99 1016.7
20260904124104 69 125 0.0 2.0 0.00 1.06 0.00 99 1016.8
20260904124003 69 132 0.0 2.0 0.00 1.06 0.00 99 1016.7
20260904123903 69 135 0.0 2.0 0.00 1.06 0.00 99 1016.6
20260904123804 69 136 1.0 2.0 0.00 1.06 0.00 99 1016.7
20260904123703 69 136 1.0 2.0 0.00 1.06 0.00 99 1016.8
20260904123625 69 135 1.0 2.0 0.00 1.06 0.00 99 1016.7
20260904123503 69 135 1.0 2.0 0.00 1.06 0.00 99 1016.8
20260904123403 69 134 1.0 2.0 0.00 1.06 0.00 99 1016.8
20260904123303 69 132 1.0 2.0 0.00 1.06 0.00 99 1016.8
20260904123203 69 132 1.0 2.0 0.00 1.06 0.00 99 1016.8
20260904123103 68 132 1.0 2.0 0.00 1.06 0.00 99 1016.8
20260904123003 68 131 1.0 2.0 0.00 1.06 0.00 99 1016.7
20260904122903 68 128 1.0 2.0 0.00 1.06 0.00 99 1016.7
20260904122803 68 126 0.0 2.0 0.00 1.06 0.00 99 1016.7
20260904122704 68 124 0.0 2.0 0.00 1.06 0.00 99 1016.6
20260904122625 68 124 0.0 2.0 0.00 1.06 0.00 99 1016.6
20260904122503 68 124 0.0 2.0 0.00 1.06 0.00 99 1016.6
20260904122404 68 126 0.0 2.0 0.00 1.06 0.00 99 1016.8
20260904122306 68 129 0.0 2.0 0.00 1.06 0.00 99 1016.6
20260904122203 68 131 0.0 2.0 0.00 1.06 0.00 99 1016.6
20260904122103 68 131 0.0 2.0 0.00 1.06 0.00 99 1016.6
20260904122003 68 131 0.0 2.0 0.00 1.06 0.00 99 1016.6
20260904121903 68 128 0.0 2.0 0.00 1.06 0.00 99 1016.6
20260904121804 68 120 0.0 1.0 0.00 1.06 0.00 99 1016.6
20260904121704 68 123 0.0 1.0 0.00 1.06 0.00 99 1016.6
20260904121603 68 123 0.0 1.0 0.00 1.06 0.00 99 1016.6
20260904121504 68 125 0.0 1.0 0.00 1.06 0.00 99 1016.8
20260904121403 68 125 0.0 1.0 0.00 1.06 0.00 99 1016.6
20260904121304 68 125 0.0 1.0 0.00 1.06 0.00 99 1016.7
20260904121204 68 129 0.0 2.0 0.00 1.06 0.00 99 1016.9
20260904121104 68 129 0.0 2.0 0.00 1.06 0.00 99 1016.8
20260904121004 68 129 0.0 2.0 0.00 1.06 0.00 99 1016.8
20260904120924 68 129 0.0 2.0 0.00 1.06 0.00 99 1016.8
20260904120803 68 129 0.0 2.0 0.00 1.06 0.00 99 1016.7
20260904120704 68 131 0.0 2.0 0.00 1.06 0.00 99 1016.7
20260904120603 68 131 0.0 2.0 0.00 1.06 0.00 99 1016.5
20260904120524 68 131 0.0 2.0 0.00 1.06 0.00 99 1016.5
20260904120403 68 131 0.0 2.0 0.00 1.06 0.00 99 1016.6
20260904120325 68 131 0.0 2.0 0.00 1.06 0.00 99 1016.6
20260904120203 68 0 0.0 0.0 0.00 1.06 0.00 99 1016.7
20260904120003 68 0 0.0 0.0 0.00 1.06 0.00 99 1016.7
20260904115904 68 0 0.0 0.0 0.00 1.06 0.00 99 1016.7
20260904115803 67 0 0.0 0.0 0.00 1.06 0.00 99 1016.8
20260904115703 67 0 0.0 0.0 0.00 1.06 0.00 99 1016.8
20260904115603 67 0 0.0 0.0 0.00 1.06 0.00 99 1016.7
20260904115503 67 0 0.0 0.0 0.00 1.06 0.00 99 1016.9
20260904115404 67 0 0.0 0.0 0.00 1.06 0.00 99 1016.6
20260904115306 67 0 0.0 0.0 0.00 1.06 0.00 99 1016.7
20260904115203 67 0 0.0 0.0 0.00 1.06 0.00 99 1016.5
20260904115124 67 0 0.0 0.0 0.00 1.06 0.00 99 1016.6
20260904115004 67 0 0.0 0.0 0.00 1.06 0.00 99 1016.7
20260904114903 67 0 0.0 0.0 0.00 1.06 0.00 99 1016.6
20260904114803 67 0 0.0 0.0 0.00 1.06 0.00 99 1016.6
20260904114703 67 0 0.0 0.0 0.00 1.06 0.00 99 1016.7
20260904114603 67 0 0.0 0.0 0.00 1.06 0.00 99 1016.7
20260904114525 67 0 0.0 0.0 0.00 1.06 0.00 99 1016.8
20260904114403 67 0 0.0 0.0 0.00 1.06 0.00 99 1016.9
20260904114303 67 0 0.0 0.0 0.00 1.06 0.00 99 1016.7
20260904114224 67 0 0.0 0.0 0.00 1.06 0.00 99 1016.8
20260904114104 67 0 0.0 0.0 0.00 1.06 0.00 99 1016.7
20260904114024 67 0 0.0 0.0 0.00 1.06 0.00 99 1016.8
20260904113925 67 0 0.0 0.0 0.00 1.06 0.00 99 1016.6
20260904113803 67 0 0.0 0.0 0.00 1.06 0.00 99 1016.8
20260904113704 66 0 0.0 0.0 0.00 1.06 0.00 99 1016.7
20260904113604 66 0 0.0 0.0 0.00 1.06 0.00 99 1016.7
20260904113503 66 0 0.0 0.0 0.00 1.06 0.00 99 1016.6
20260904113425 66 0 0.0 0.0 0.00 1.06 0.00 99 1016.6
20260904113303 66 0 0.0 0.0 0.00 1.06 0.00 99 1016.9
20260904113225 66 0 0.0 0.0 0.00 1.06 0.00 99 1016.9
20260904113103 66 0 0.0 0.0 0.00 1.06 0.00 99 1016.9
20260904113004 66 0 0.0 0.0 0.00 1.06 0.00 99 1016.7
20260904112903 66 0 0.0 0.0 0.00 1.06 0.00 99 1016.8
20260904112804 66 0 0.0 0.0 0.00 1.06 0.00 99 1016.7
20260904112724 66 0 0.0 0.0 0.00 1.06 0.00 99 1016.7
20260904112603 66 0 0.0 0.0 0.00 1.06 0.00 99 1016.7
20260904112504 66 0 0.0 0.0 0.00 1.06 0.00 99 1016.8
20260904112404 66 0 0.0 0.0 0.00 1.06 0.00 99 1016.5
20260904112305 66 0 0.0 0.0 0.00 1.06 0.00 99 1016.6
20260904112224 66 0 0.0 0.0 0.00 1.06 0.00 99 1016.6
20260904112103 66 0 0.0 0.0 0.00 1.06 0.00 99 1016.5
20260904112004 66 0 0.0 0.0 0.00 1.06 0.00 99 1016.4
20260904111904 66 0 0.0 0.0 0.00 1.06 0.00 99 1016.8
20260904111803 66 0 0.0 0.0 0.00 1.06 0.00 99 1016.8
20260904111703 66 0 0.0 0.0 0.00 1.06 0.00 99 1016.7
20260904111604 66 0 0.0 0.0 0.00 1.06 0.00 99 1016.7
20260904111504 66 0 0.0 0.0 0.00 1.06 0.00 99 1016.7
20260904111425 66 0 0.0 0.0 0.00 1.06 0.00 99 1016.7
20260904111304 66 0 0.0 0.0 0.00 1.06 0.00 99 1016.8
20260904111204 66 0 0.0 0.0 0.00 1.06 0.00 99 1016.7
20260904111103 66 0 0.0 0.0 0.00 1.06 0.00 99 1016.7
20260904111003 66 0 0.0 0.0 0.00 1.06 0.00 99 1016.5
20260904110903 66 0 0.0 0.0 0.00 1.06 0.00 99 1016.6
20260904110803 66 0 0.0 0.0 0.00 1.06 0.00 99 1016.7
20260904110725 66 0 0.0 0.0 0.00 1.06 0.00 99 1016.7
20260904110603 66 0 0.0 0.0 0.00 1.06 0.00 99 1016.5
20260904110525 66 0 0.0 0.0 0.00 1.06 0.00 99 1016.5
20260904110404 66 0 0.0 0.0 0.00 1.06 0.00 99 1016.3
20260904110303 66 0 0.0 0.0 0.00 1.06 0.00 99 1016.6
20260904110225 66 0 0.0 0.0 0.00 1.06 0.00 99 1016.6
20260904110124 66 0 0.0 0.0 0.00 1.06 0.00 99 1016.2
20260904110004 66 0 0.0 0.0 0.00 1.06 0.00 99 1016.3
20260904105924 66 0 0.0 0.0 0.00 1.06 0.00 99 1016.4
20260904105803 66 0 0.0 0.0 0.00 1.07 0.00 99 1016.3
20260904105703 66 0 0.0 0.0 0.00 1.08 0.00 99 1016.2
20260904105604 66 0 0.0 0.0 0.00 1.10 0.00 99 1016.4
20260904105524 66 0 0.0 0.0 0.00 1.14 0.00 99 1016.2
20260904105405 66 0 0.0 0.0 0.00 1.18 0.00 99 1016.2
20260904105324 66 0 0.0 0.0 0.00 1.22 0.00 99 1016.2
20260904105203 66 0 0.0 0.0 0.00 1.24 0.00 99 1016.3
20260904105104 66 0 0.0 0.0 0.00 1.26 0.00 99 1016.2
20260904105003 66 0 0.0 0.0 0.00 1.29 0.00 99 1016.2
20260904104924 66 0 0.0 0.0 0.00 1.31 0.00 99 1016.2
20260904104824 66 0 0.0 0.0 0.00 1.31 0.00 99 1015.9
20260904104724 66 0 0.0 0.0 0.00 1.32 0.00 99 1016.1
20260904104624 66 0 0.0 0.0 0.00 1.32 0.00 99 1016.2
20260904104504 66 0 0.0 0.0 0.00 1.32 0.00 99 1016.2
20260904104403 66 0 0.0 0.0 0.00 1.32 0.00 99 1016.2
20260904104304 66 0 0.0 0.0 0.00 1.32 0.00 99 1016.2
20260904104203 66 0 0.0 0.0 0.00 1.32 0.00 99 1016.1
20260904104104 66 0 0.0 0.0 0.00 1.32 0.00 99 1016.2
20260904104004 66 0 0.0 0.0 0.00 1.32 0.00 99 1016.1
20260904103904 66 0 0.0 0.0 0.00 1.32 0.00 99 1016.2
20260904103824 66 0 0.0 0.0 0.00 1.32 0.00 99 1016.1
20260904103704 66 0 0.0 0.0 0.00 1.32 0.00 99 1016.1
20260904103603 66 0 0.0 0.0 0.00 1.32 0.00 99 1016.2
20260904103525 66 0 0.0 0.0 0.00 1.32 0.00 99 1016.1
20260904103404 66 0 0.0 0.0 0.00 1.32 0.00 99 1016.2
20260904103304 66 0 0.0 0.0 0.00 1.32 0.00 99 1016.2
20260904103203 66 0 0.0 0.0 0.00 1.32 0.00 99 1016.2
20260904103103 66 0 0.0 0.0 0.00 1.32 0.00 99 1016.3
20260904103004 66 0 0.0 0.0 0.00 1.32 0.00 99 1016.2
20260904102925 66 0 0.0 0.0 0.00 1.32 0.00 99 1016.2
20260904102803 66 0 0.0 0.0 0.00 1.32 0.00 99 1016.3
20260904102703 66 0 0.0 0.0 0.00 1.32 0.00 99 1016.2
20260904102604 66 0 0.0 0.0 0.00 1.32 0.00 99 1016.2
20260904102503 66 0 0.0 0.0 0.00 1.32 0.00 99 1016.1
20260904102404 66 0 0.0 0.0 0.00 1.32 0.00 99 1016.1
20260904102306 66 0 0.0 0.0 0.00 1.32 0.00 99 1016.2
20260904102203 66 0 0.0 0.0 0.00 1.32 0.00 99 1016.4
20260904102104 66 0 0.0 0.0 0.00 1.32 0.00 99 1016.4
20260904102003 66 0 0.0 0.0 0.00 1.32 0.00 99 1016.3
20260904101903 66 0 0.0 0.0 0.00 1.32 0.00 99 1016.4
20260904101803 66 0 0.0 0.0 0.00 1.32 0.00 99 1016.3
20260904101703 66 0 0.0 0.0 0.00 1.32 0.00 99 1016.3
20260904101625 66 0 0.0 0.0 0.00 1.32 0.00 99 1016.3
20260904101503 66 0 0.0 0.0 0.00 1.32 0.00 99 1016.3
20260904101403 66 0 0.0 0.0 0.00 1.32 0.00 99 1016.1
20260904101304 66 0 0.0 0.0 0.00 1.32 0.00 99 1016.1
20260904101203 66 0 0.0 0.0 0.00 1.32 0.00 99 1016.1
20260904101104 66 132 0.0 1.0 0.00 1.32 0.00 99 1016.1
20260904101003 66 132 0.0 1.0 0.00 1.32 0.00 99 1016.0
20260904100904 66 132 0.0 1.0 0.00 1.32 0.00 99 1016.0
20260904100824 66 133 0.0 2.0 0.00 1.32 0.00 99 1015.9
20260904100724 66 133 0.0 2.0 0.00 1.32 0.00 99 1015.9
20260904100625 66 133 0.0 2.0 0.00 1.32 0.00 99 1015.9
20260904100524 66 133 0.0 2.0 0.00 1.32 0.00 99 1015.9
20260904100403 66 133 0.0 2.0 0.00 1.32 0.00 99 1016.0
20260904100303 66 133 0.0 2.0 0.00 1.32 0.00 99 1015.9
20260904100204 66 133 0.0 2.0 0.00 1.32 0.00 99 1016.1
20260904100103 66 133 0.0 2.0 0.00 1.32 0.00 99 1015.7
20260904100004 66 133 0.0 2.0 0.00 1.32 0.00 99 1016.1
20260904095904 66 135 0.0 2.0 0.00 1.32 0.00 99 1016.0
20260904095804 66 0 0.0 0.0 0.00 1.32 0.00 99 1015.9
20260904095704 66 0 0.0 0.0 0.00 1.32 0.00 99 1016.1
20260904095604 66 121 0.0 1.0 0.00 1.32 0.00 99 1016.3
20260904095504 66 123 0.0 1.0 0.00 1.32 0.00 99 1016.2
20260904095403 66 124 0.0 1.0 0.00 1.32 0.00 99 1016.3
20260904095306 65 124 0.0 1.0 0.00 1.32 0.00 99 1016.3
20260904095224 65 124 0.0 1.0 0.00 1.32 0.00 99 1016.3
20260904095103 66 124 0.0 1.0 0.00 1.32 0.00 99 1016.4
20260904095003 66 124 0.0 1.0 0.00 1.32 0.00 99 1016.3
20260904094924 66 124 0.0 1.0 0.00 1.32 0.00 99 1016.3
20260904094803 66 124 0.0 1.0 0.00 1.32 0.00 99 1016.4
20260904094703 66 124 0.0 1.0 0.00 1.32 0.00 99 1016.2
20260904094604 65 124 0.0 1.0 0.00 1.32 0.00 99 1016.3
20260904094503 65 124 0.0 1.0 0.00 1.32 0.00 99 1016.3
20260904094425 65 123 0.0 1.0 0.00 1.32 0.00 99 1016.5
20260904094303 65 0 0.0 0.0 0.00 1.32 0.00 99 1016.5
20260904094203 65 0 0.0 0.0 0.00 1.32 0.00 99 1016.3
20260904094103 65 0 0.0 0.0 0.00 1.32 0.00 99 1016.4
20260904094024 65 0 0.0 0.0 0.00 1.32 0.00 99 1016.6
20260904093904 65 0 0.0 0.0 0.00 1.32 0.00 99 1016.4
20260904093803 65 0 0.0 0.0 0.00 1.32 0.00 99 1016.5
20260904093703 65 0 0.0 0.0 0.00 1.32 0.00 99 1016.6
20260904093603 65 0 0.0 0.0 0.00 1.32 0.00 99 1016.5
20260904093504 65 0 0.0 0.0 0.00 1.32 0.00 99 1016.5
20260904093403 65 0 0.0 0.0 0.00 1.32 0.00 99 1016.5
20260904093304 65 0 0.0 0.0 0.00 1.32 0.00 99 1016.4
20260904093203 65 0 0.0 0.0 0.00 1.32 0.00 99 1016.4
20260904093103 65 0 0.0 0.0 0.00 1.32 0.00 99 1016.4
20260904093003 65 0 0.0 0.0 0.00 1.32 0.00 99 1016.5
20260904092904 65 0 0.0 0.0 0.00 1.32 0.00 99 1016.6
20260904092804 65 0 0.0 0.0 0.00 1.32 0.00 99 1016.6
20260904092704 65 0 0.0 0.0 0.00 1.32 0.00 99 1016.4
20260904092604 65 0 0.0 0.0 0.00 1.32 0.00 99 1016.3
20260904092503 65 0 0.0 0.0 0.00 1.32 0.00 99 1016.4
20260904092404 65 0 0.0 0.0 0.00 1.32 0.00 99 1016.4
20260904092306 65 0 0.0 0.0 0.00 1.32 0.00 99 1016.5
20260904092203 65 0 0.0 0.0 0.00 1.32 0.00 99 1016.3
20260904092103 65 0 0.0 0.0 0.00 1.32 0.00 99 1016.2
20260904092003 65 0 0.0 0.0 0.00 1.32 0.00 99 1016.3
20260904091903 65 0 0.0 0.0 0.00 1.32 0.00 99 1016.2
20260904091803 65 0 0.0 0.0 0.00 1.32 0.00 99 1016.3
20260904091703 65 0 0.0 0.0 0.00 1.32 0.00 99 1016.3
20260904091624 65 0 0.0 0.0 0.00 1.32 0.00 99 1016.3
20260904091525 65 0 0.0 0.0 0.00 1.32 0.00 99 1016.1
20260904091424 65 0 0.0 0.0 0.00 1.32 0.00 99 1016.3
20260904091303 65 0 0.0 0.0 0.00 1.32 0.00 99 1016.0
20260904091204 65 0 0.0 0.0 0.00 1.32 0.00 99 1016.0
20260904091104 65 0 0.0 0.0 0.00 1.32 0.00 99 1016.2
20260904091003 65 0 0.0 0.0 0.00 1.32 0.00 99 1016.3
20260904090904 65 0 0.0 0.0 0.00 1.32 0.00 99 1015.9
20260904090804 65 0 0.0 0.0 0.00 1.32 0.00 99 1016.2
20260904090703 65 0 0.0 0.0 0.00 1.32 0.00 99 1016.3
20260904090603 65 0 0.0 0.0 0.00 1.32 0.00 99 1016.2
20260904090503 65 0 0.0 0.0 0.00 1.32 0.00 99 1016.2
20260904090404 65 0 0.0 0.0 0.00 1.32 0.00 99 1016.2
20260904090304 65 0 0.0 0.0 0.00 1.32 0.00 99 1016.2
20260904090204 65 0 0.0 0.0 0.00 1.32 0.00 99 1016.2
20260904090003 65 0 0.0 0.0 0.00 1.32 0.00 99 1016.4
20260904085903 65 0 0.0 0.0 0.00 1.32 0.00 99 1016.4
20260904085804 65 0 0.0 0.0 0.00 1.32 0.00 99 1016.4
20260904085704 65 0 0.0 0.0 0.00 1.32 0.00 99 1016.4
20260904085604 65 0 0.0 0.0 0.00 1.32 0.00 99 1016.4
20260904085504 65 0 0.0 0.0 0.00 1.32 0.00 99 1016.5
20260904085403 65 0 0.0 0.0 0.00 1.32 0.00 99 1016.4
20260904085306 65 0 0.0 0.0 0.00 1.32 0.00 99 1016.4
20260904085203 65 0 0.0 0.0 0.00 1.32 0.00 99 1016.1
20260904085103 65 0 0.0 0.0 0.00 1.32 0.00 99 1016.2
20260904085004 65 0 0.0 0.0 0.00 1.32 0.00 99 1016.1
20260904084924 65 0 0.0 0.0 0.00 1.32 0.00 99 1016.1
20260904084824 66 0 0.0 0.0 0.00 1.32 0.00 99 1016.1
20260904084724 66 0 0.0 0.0 0.00 1.32 0.00 99 1016.1
20260904084604 66 0 0.0 0.0 0.00 1.32 0.00 99 1016.1
20260904084503 66 0 0.0 0.0 0.00 1.32 0.00 99 1016.3
20260904084424 66 0 0.0 0.0 0.00 1.32 0.00 99 1015.9
20260904084303 66 0 0.0 0.0 0.00 1.32 0.00 99 1016.0
20260904084224 66 0 0.0 0.0 0.00 1.32 0.00 99 1016.0
20260904084104 66 0 0.0 0.0 0.00 1.32 0.00 99 1016.1
20260904084003 66 0 0.0 0.0 0.00 1.32 0.00 99 1016.0
20260904083924 66 0 0.0 0.0 0.00 1.32 0.00 99 1016.1
20260904083804 66 0 0.0 0.0 0.00 1.32 0.00 99 1015.7
20260904083703 66 0 0.0 0.0 0.00 1.32 0.00 99 1016.0
20260904083624 66 0 0.0 0.0 0.00 1.32 0.00 99 1016.1
20260904083503 65 101 0.0 1.0 0.00 1.32 0.00 99 1016.0
20260904083403 65 100 0.0 1.0 0.00 1.32 0.00 99 1016.1
20260904083303 65 101 0.0 1.0 0.00 1.32 0.00 99 1016.3
20260904083204 66 102 0.0 1.0 0.00 1.32 0.00 99 1016.2
20260904083103 66 102 0.0 1.0 0.00 1.32 0.00 99 1016.3
20260904083003 66 102 0.0 1.0 0.00 1.32 0.00 99 1016.2
20260904082904 66 102 0.0 1.0 0.00 1.32 0.00 99 1016.2
20260904082803 66 102 0.0 1.0 0.00 1.32 0.00 99 1016.1
20260904082724 66 102 0.0 1.0 0.00 1.32 0.00 99 1016.0
20260904082603 66 102 0.0 1.0 0.00 1.32 0.00 99 1016.0
20260904082503 66 102 0.0 1.0 0.00 1.32 0.00 99 1015.9
20260904082403 66 103 0.0 1.0 0.00 1.32 0.00 99 1016.1
20260904082305 66 105 0.0 1.0 0.00 1.32 0.00 99 1016.1
20260904082204 66 0 0.0 0.0 0.00 1.32 0.00 99 1015.9
20260904082103 66 0 0.0 0.0 0.00 1.32 0.00 99 1015.7
20260904082004 66 0 0.0 0.0 0.00 1.32 0.00 99 1015.7
20260904081924 66 0 0.0 0.0 0.00 1.32 0.00 99 1016.0
20260904081803 66 0 0.0 0.0 0.00 1.32 0.00 99 1015.9
20260904081725 66 0 0.0 0.0 0.00 1.32 0.00 99 1015.9
20260904081604 66 0 0.0 0.0 0.00 1.32 0.00 99 1016.1
20260904081503 66 0 0.0 0.0 0.00 1.32 0.00 99 1015.7
20260904081403 66 0 0.0 0.0 0.00 1.32 0.00 99 1016.0
20260904081304 66 0 0.0 0.0 0.00 1.32 0.00 99 1016.0
20260904081204 66 0 0.0 0.0 0.00 1.32 0.00 99 1016.0
20260904081103 66 0 0.0 0.0 0.00 1.32 0.00 99 1016.2
20260904081004 66 0 0.0 0.0 0.00 1.32 0.00 99 1016.2
20260904080903 66 0 0.0 0.0 0.00 1.32 0.00 99 1016.2
20260904080803 66 0 0.0 0.0 0.00 1.32 0.00 99 1016.1
20260904080703 66 0 0.0 0.0 0.00 1.32 0.00 99 1016.2
20260904080624 66 0 0.0 0.0 0.00 1.32 0.00 99 1016.2
20260904080525 66 0 0.0 0.0 0.00 1.32 0.00 99 1016.5
20260904080424 66 0 0.0 0.0 0.00 1.32 0.00 99 1016.3
20260904080303 66 0 0.0 0.0 0.00 1.32 0.00 99 1016.4
20260904080224 66 0 0.0 0.0 0.00 1.32 0.00 99 1016.2
20260904080124 66 0 0.0 0.0 0.00 1.32 0.00 99 1016.6
20260904080003 66 0 0.0 0.0 0.00 1.32 0.00 99 1016.4
20260904075924 66 0 0.0 0.0 0.00 1.32 0.00 99 1016.4
20260904075803 66 0 0.0 0.0 0.00 1.32 0.00 99 1016.4
20260904075703 66 0 0.0 0.0 0.00 1.32 0.00 99 1016.5
20260904075603 66 0 0.0 0.0 0.00 1.32 0.00 99 1016.5
20260904075504 66 0 0.0 0.0 0.00 1.32 0.00 99 1016.4
20260904075424 66 0 0.0 0.0 0.00 1.32 0.00 99 1016.2
20260904075306 66 0 0.0 0.0 0.00 1.32 0.00 99 1016.3
20260904075225 66 0 0.0 0.0 0.00 1.32 0.00 99 1016.4
20260904075103 66 0 0.0 0.0 0.00 1.32 0.00 99 1016.2
20260904075003 66 0 0.0 0.0 0.00 1.32 0.00 99 1016.4
20260904074925 66 0 0.0 0.0 0.00 1.32 0.00 99 1016.3
20260904074803 66 0 0.0 0.0 0.00 1.32 0.00 99 1016.3
20260904074704 66 0 0.0 0.0 0.00 1.32 0.00 99 1016.3
20260904074603 66 0 0.0 0.0 0.00 1.32 0.00 99 1016.4
20260904074504 66 0 0.0 0.0 0.00 1.32 0.00 99 1016.3
20260904074404 66 0 0.0 0.0 0.00 1.32 0.00 99 1016.4
20260904074303 66 0 0.0 0.0 0.00 1.32 0.00 99 1016.3
20260904074204 66 0 0.0 0.0 0.00 1.32 0.00 99 1016.5
20260904074103 66 0 0.0 0.0 0.00 1.32 0.00 99 1016.2
20260904074003 66 0 0.0 0.0 0.00 1.32 0.00 99 1016.3
20260904073925 66 0 0.0 0.0 0.00 1.32 0.00 99 1016.3
20260904073824 66 0 0.0 0.0 0.00 1.32 0.00 99 1016.4
20260904073704 66 0 0.0 0.0 0.00 1.32 0.00 99 1016.4
20260904073625 66 0 0.0 0.0 0.00 1.32 0.00 99 1016.3
20260904073503 66 0 0.0 0.0 0.00 1.32 0.00 99 1016.4
20260904073403 66 0 0.0 0.0 0.00 1.32 0.00 99 1016.4
20260904073303 66 0 0.0 0.0 0.00 1.32 0.00 99 1016.4
20260904073203 66 0 0.0 0.0 0.00 1.32 0.00 99 1016.4
20260904073103 66 0 0.0 0.0 0.00 1.32 0.00 99 1016.4
20260904073003 66 0 0.0 0.0 0.00 1.32 0.00 99 1016.4
20260904072904 66 0 0.0 0.0 0.00 1.32 0.00 99 1016.2
20260904072803 66 0 0.0 0.0 0.00 1.32 0.00 99 1016.2
20260904072703 66 0 0.0 0.0 0.00 1.32 0.00 99 1016.3
20260904072604 66 0 0.0 0.0 0.00 1.32 0.00 99 1016.3
20260904072524 66 0 0.0 0.0 0.00 1.32 0.00 99 1016.3
20260904072404 66 0 0.0 0.0 0.00 1.32 0.00 99 1016.3
20260904072306 66 0 0.0 0.0 0.00 1.32 0.00 99 1016.3
20260904072225 66 0 0.0 0.0 0.00 1.32 0.00 99 1016.3
20260904072125 66 0 0.0 0.0 0.00 1.32 0.00 99 1016.3
20260904072004 66 0 0.0 0.0 0.00 1.32 0.00 99 1016.4
20260904071903 66 0 0.0 0.0 0.00 1.32 0.00 99 1016.3
20260904071804 66 0 0.0 0.0 0.00 1.32 0.00 99 1016.3
20260904071725 66 0 0.0 0.0 0.00 1.32 0.00 99 1016.4
20260904071603 66 0 0.0 0.0 0.00 1.32 0.00 99 1016.3
20260904071504 66 0 0.0 0.0 0.00 1.32 0.00 99 1016.3
20260904071403 66 0 0.0 0.0 0.00 1.32 0.00 99 1016.5
20260904071303 66 0 0.0 0.0 0.00 1.32 0.00 99 1016.5
20260904071225 66 0 0.0 0.0 0.00 1.32 0.00 99 1016.2
20260904071103 66 0 0.0 0.0 0.00 1.32 0.00 99 1016.2
20260904071003 67 0 0.0 0.0 0.00 1.32 0.00 99 1016.4
20260904070904 67 0 0.0 0.0 0.00 1.32 0.00 99 1016.3
20260904070824 67 0 0.0 0.0 0.00 1.32 0.00 99 1016.3
20260904070725 67 0 0.0 0.0 0.00 1.32 0.00 99 1016.3
20260904070604 67 0 0.0 0.0 0.00 1.32 0.00 99 1016.3
20260904070503 67 0 0.0 0.0 0.00 1.32 0.00 99 1016.3
20260904070403 67 0 0.0 0.0 0.00 1.32 0.00 99 1016.3
20260904070303 67 0 0.0 0.0 0.00 1.32 0.00 99 1016.3
20260904070203 67 0 0.0 0.0 0.00 1.32 0.00 99 1016.3
20260904070005 67 0 0.0 0.0 0.00 1.32 0.00 99 1016.1
20260904065903 67 0 0.0 0.0 0.00 1.32 0.00 99 1016.4
20260904065803 67 0 0.0 0.0 0.00 1.32 0.00 99 1016.3
20260904065704 67 0 0.0 0.0 0.00 1.32 0.00 99 1016.2
20260904065625 67 0 0.0 0.0 0.00 1.32 0.00 99 1016.1
20260904065503 67 0 0.0 0.0 0.00 1.32 0.00 99 1016.3
20260904065403 67 0 0.0 0.0 0.00 1.32 0.00 99 1016.4
20260904065306 67 0 0.0 0.0 0.00 1.32 0.00 99 1016.2
20260904065224 67 0 0.0 0.0 0.00 1.32 0.00 99 1016.3
20260904065103 67 0 0.0 0.0 0.00 1.32 0.00 99 1016.3
20260904065024 67 0 0.0 0.0 0.00 1.32 0.00 99 1016.4
20260904064903 67 0 0.0 0.0 0.00 1.32 0.00 99 1016.5
20260904064803 67 0 0.0 0.0 0.00 1.32 0.00 99 1016.5
20260904064703 67 0 0.0 0.0 0.00 1.32 0.00 99 1016.4
20260904064604 67 0 0.0 0.0 0.00 1.32 0.00 99 1016.6
20260904064504 67 0 0.0 0.0 0.00 1.32 0.00 99 1016.4
20260904064404 67 0 0.0 0.0 0.00 1.32 0.00 99 1016.5
20260904064324 67 0 0.0 0.0 0.00 1.32 0.00 99 1016.4
20260904064204 67 0 0.0 0.0 0.00 1.32 0.00 99 1016.4
20260904064103 67 0 0.0 0.0 0.00 1.32 0.00 99 1016.4
20260904064003 67 0 0.0 0.0 0.00 1.32 0.00 99 1016.3
20260904063904 67 0 0.0 0.0 0.00 1.32 0.00 99 1016.4
20260904063807 67 0 0.0 0.0 0.00 1.32 0.00 99 1016.5
20260904063706 67 0 0.0 0.0 0.00 1.32 0.00 99 1016.3
20260904063605 67 0 0.0 0.0 0.00 1.32 0.00 99 1016.6
20260904063505 67 0 0.0 0.0 0.00 1.32 0.00 99 1016.5
20260904063404 67 0 0.0 0.0 0.00 1.32 0.00 99 1016.3
20260904063303 67 0 0.0 0.0 0.00 1.32 0.00 99 1016.3
20260904063205 67 0 0.0 0.0 0.00 1.32 0.00 99 1016.5
20260904063107 67 0 0.0 0.0 0.00 1.32 0.00 99 1016.4
20260904063006 67 0 0.0 0.0 0.00 1.32 0.00 99 1016.4
20260904062903 67 0 0.0 0.0 0.00 1.32 0.00 99 1016.4
20260904062804 67 0 0.0 0.0 0.00 1.32 0.00 99 1016.5
20260904062724 67 0 0.0 0.0 0.00 1.32 0.00 99 1016.5
20260904062625 67 0 0.0 0.0 0.00 1.32 0.00 99 1016.6
20260904062504 67 0 0.0 0.0 0.00 1.32 0.00 99 1016.4
20260904062403 67 0 0.0 0.0 0.00 1.32 0.00 99 1016.6
20260904062306 67 125 0.0 1.0 0.00 1.32 0.00 99 1016.7
20260904062203 67 125 0.0 1.0 0.00 1.32 0.00 99 1016.5
20260904062103 67 123 0.0 1.0 0.00 1.32 0.00 99 1016.4
20260904062003 67 123 0.0 1.0 0.00 1.32 0.00 99 1016.7
20260904061903 67 123 0.0 1.0 0.00 1.32 0.00 99 1016.6
20260904061803 67 123 0.0 1.0 0.00 1.32 0.00 99 1016.6
20260904061703 67 123 0.0 1.0 0.00 1.32 0.00 99 1016.4
20260904061604 67 123 0.0 1.0 0.00 1.32 0.00 99 1016.4
20260904061525 67 123 0.0 1.0 0.00 1.32 0.00 99 1016.5
20260904061403 67 123 0.0 1.0 0.00 1.32 0.00 99 1016.5
20260904061304 67 123 0.0 1.0 0.00 1.32 0.00 99 1016.5
20260904061203 67 122 0.0 1.0 0.00 1.32 0.00 99 1016.6
20260904061103 67 118 0.0 1.0 0.00 1.32 0.00 99 1016.5
20260904061004 67 118 0.0 1.0 0.00 1.32 0.00 99 1016.4
20260904060903 67 118 0.0 1.0 0.00 1.32 0.00 99 1016.5
20260904060824 67 118 0.0 1.0 0.00 1.32 0.00 99 1016.7
20260904060724 67 118 0.0 1.0 0.00 1.32 0.00 99 1016.6
20260904060603 67 118 0.0 1.0 0.00 1.32 0.00 99 1016.5
20260904060503 67 118 0.0 1.0 0.00 1.32 0.00 99 1016.6
20260904060404 67 118 0.0 1.0 0.00 1.32 0.00 99 1016.5
20260904060324 67 118 0.0 1.0 0.00 1.32 0.00 99 1016.4
20260904060224 67 118 0.0 1.0 0.00 1.32 0.00 99 1016.4
20260904060004 67 0 0.0 0.0 0.00 1.32 0.00 99 1016.4
20260904055903 67 0 0.0 0.0 0.00 1.32 0.00 99 1016.5
20260904055803 67 0 0.0 0.0 0.00 1.32 0.00 99 1016.4
20260904055724 67 0 0.0 0.0 0.00 1.32 0.00 99 1016.5
20260904055603 67 0 0.0 0.0 0.00 1.32 0.00 99 1016.5
20260904055503 67 0 0.0 0.0 0.00 1.32 0.00 99 1016.4
20260904055403 67 0 0.0 0.0 0.00 1.32 0.00 99 1016.5
20260904055306 67 0 0.0 0.0 0.00 1.32 0.00 99 1016.4
20260904055204 67 0 0.0 0.0 0.00 1.32 0.00 99 1016.3
20260904055103 67 0 0.0 0.0 0.00 1.32 0.00 99 1016.4
20260904055024 67 0 0.0 0.0 0.00 1.32 0.00 99 1016.5
20260904054903 67 0 0.0 0.0 0.00 1.32 0.00 99 1016.4
20260904054803 67 0 0.0 0.0 0.00 1.32 0.00 99 1016.6
20260904054703 67 0 0.0 0.0 0.00 1.32 0.00 99 1016.2
20260904054604 67 0 0.0 0.0 0.00 1.32 0.00 99 1016.4
20260904054504 67 0 0.0 0.0 0.00 1.32 0.00 99 1016.4
20260904054424 67 0 0.0 0.0 0.00 1.32 0.00 99 1016.6
20260904054303 67 0 0.0 0.0 0.00 1.32 0.00 99 1016.6
20260904054203 67 0 0.0 0.0 0.00 1.32 0.00 99 1016.7
20260904054103 67 0 0.0 0.0 0.00 1.32 0.00 99 1016.4
20260904054003 67 0 0.0 0.0 0.00 1.32 0.00 99 1016.5
20260904053924 67 0 0.0 0.0 0.00 1.32 0.00 99 1016.5
20260904053804 67 0 0.0 0.0 0.00 1.32 0.00 99 1016.5
20260904053703 67 0 0.0 0.0 0.00 1.32 0.00 99 1016.4
20260904053624 67 0 0.0 0.0 0.00 1.32 0.00 99 1016.5
20260904053503 67 0 0.0 0.0 0.00 1.32 0.00 99 1016.7
20260904053424 67 0 0.0 0.0 0.00 1.32 0.00 99 1016.5
20260904053324 67 0 0.0 0.0 0.00 1.32 0.00 99 1016.5
20260904053203 67 0 0.0 0.0 0.00 1.32 0.00 99 1016.4
20260904053124 67 0 0.0 0.0 0.00 1.32 0.00 99 1016.6
20260904053004 67 0 0.0 0.0 0.00 1.32 0.00 99 1016.5
20260904052903 67 0 0.0 0.0 0.00 1.32 0.00 99 1016.4
20260904052825 67 0 0.0 0.0 0.00 1.32 0.00 99 1016.5
20260904052704 67 0 0.0 0.0 0.00 1.32 0.00 99 1016.4
20260904052604 67 0 0.0 0.0 0.00 1.32 0.00 99 1016.4
20260904052503 67 0 0.0 0.0 0.00 1.32 0.00 99 1016.6
20260904052403 67 0 0.0 0.0 0.00 1.32 0.00 99 1016.4
20260904052306 67 0 0.0 0.0 0.00 1.32 0.00 99 1016.4
20260904052225 67 0 0.0 0.0 0.00 1.32 0.00 99 1016.4
20260904052103 67 0 0.0 0.0 0.00 1.32 0.00 99 1016.4
20260904052004 67 0 0.0 0.0 0.00 1.32 0.00 99 1016.3
20260904051904 67 0 0.0 0.0 0.00 1.32 0.00 99 1016.2
20260904051804 67 0 0.0 0.0 0.00 1.32 0.00 99 1016.3
20260904051704 67 0 0.0 0.0 0.00 1.32 0.00 99 1016.5
20260904051603 67 0 0.0 0.0 0.00 1.32 0.00 99 1016.4
20260904051504 67 0 0.0 0.0 0.00 1.32 0.00 99 1016.4
20260904051403 67 0 0.0 0.0 0.00 1.32 0.00 99 1016.3
20260904051304 67 0 0.0 0.0 0.00 1.32 0.00 99 1016.3
20260904051203 67 0 0.0 0.0 0.00 1.32 0.00 99 1016.2
20260904051103 67 0 0.0 0.0 0.00 1.32 0.00 99 1016.3
20260904051003 67 0 0.0 0.0 0.00 1.32 0.00 99 1016.2
20260904050903 67 0 0.0 0.0 0.00 1.32 0.00 98 1016.4
20260904050803 67 0 0.0 0.0 0.00 1.32 0.00 98 1016.4
20260904050703 67 0 0.0 0.0 0.00 1.32 0.00 98 1016.5
20260904050603 67 0 0.0 0.0 0.00 1.32 0.00 98 1016.3
20260904050504 67 0 0.0 0.0 0.00 1.32 0.00 98 1016.5
20260904050404 67 0 0.0 0.0 0.00 1.32 0.00 98 1016.5
20260904050325 67 0 0.0 0.0 0.00 1.32 0.00 98 1016.5
20260904050203 67 0 0.0 0.0 0.00 1.32 0.00 98 1016.2
20260904050104 67 0 0.0 0.0 0.00 1.32 0.00 98 1016.3
20260904050004 67 0 0.0 0.0 0.00 1.32 0.00 98 1016.1
20260904045925 67 0 0.0 0.0 0.00 1.32 0.00 98 1016.3
20260904045803 67 0 0.0 0.0 0.00 1.32 0.00 98 1016.4
20260904045704 67 0 0.0 0.0 0.00 1.32 0.00 98 1016.5
20260904045603 67 0 0.0 0.0 0.00 1.32 0.00 98 1016.5
20260904045503 67 0 0.0 0.0 0.00 1.32 0.00 98 1016.4
20260904045403 67 0 0.0 0.0 0.00 1.32 0.00 98 1016.4
20260904045306 67 0 0.0 0.0 0.00 1.32 0.00 98 1016.4
20260904045204 67 0 0.0 0.0 0.00 1.32 0.00 98 1016.3
20260904045103 67 0 0.0 0.0 0.00 1.32 0.00 98 1016.1
20260904045003 67 0 0.0 0.0 0.00 1.32 0.00 98 1016.2
20260904044903 67 0 0.0 0.0 0.00 1.32 0.00 98 1016.4
20260904044803 67 0 0.0 0.0 0.00 1.32 0.00 98 1016.3
20260904044703 67 0 0.0 0.0 0.00 1.32 0.00 98 1016.3
20260904044604 67 0 0.0 0.0 0.00 1.32 0.00 98 1016.2
20260904044504 67 0 0.0 0.0 0.00 1.32 0.00 98 1016.1
20260904044404 67 0 0.0 0.0 0.00 1.32 0.00 98 1016.2
20260904044304 67 0 0.0 0.0 0.00 1.32 0.00 98 1016.1
20260904044203 67 0 0.0 0.0 0.00 1.32 0.00 98 1016.2
20260904044104 67 0 0.0 0.0 0.00 1.32 0.00 98 1016.2
20260904044004 67 0 0.0 0.0 0.00 1.32 0.00 98 1016.2
20260904043903 67 0 0.0 0.0 0.00 1.32 0.00 98 1016.2
20260904043803 68 0 0.0 0.0 0.00 1.32 0.00 98 1016.3
20260904043703 68 0 0.0 0.0 0.00 1.32 0.00 98 1016.3
20260904043604 68 0 0.0 0.0 0.00 1.32 0.00 98 1016.3
20260904043524 68 0 0.0 0.0 0.00 1.32 0.00 98 1016.4
20260904043425 68 0 0.0 0.0 0.00 1.32 0.00 98 1016.4
20260904043303 68 0 0.0 0.0 0.00 1.32 0.00 98 1016.3
20260904043203 68 0 0.0 0.0 0.00 1.32 0.00 98 1016.3
20260904043104 68 0 0.0 0.0 0.00 1.32 0.00 98 1016.2
20260904043004 68 0 0.0 0.0 0.00 1.32 0.00 98 1016.4
20260904042904 68 0 0.0 0.0 0.00 1.32 0.00 98 1016.2
20260904042803 68 0 0.0 0.0 0.00 1.32 0.00 98 1016.2
20260904042703 68 113 0.0 1.0 0.00 1.32 0.00 98 1016.4
20260904042603 68 115 0.0 2.0 0.00 1.32 0.00 98 1016.4
20260904042503 68 124 0.0 3.0 0.00 1.32 0.00 98 1016.4
20260904042404 68 124 0.0 3.0 0.00 1.32 0.00 98 1016.3
20260904042306 68 126 0.0 3.0 0.00 1.32 0.00 98 1016.3
20260904042204 68 126 1.0 3.0 0.00 1.32 0.00 98 1016.1
20260904042103 68 124 1.0 3.0 0.00 1.32 0.00 98 1016.4
20260904042004 68 119 1.0 4.0 0.00 1.32 0.00 98 1016.2
20260904041903 68 118 1.0 4.0 0.00 1.32 0.00 98 1016.2
20260904041804 68 118 1.0 4.0 0.00 1.32 0.00 98 1016.1
20260904041703 68 118 1.0 4.0 0.00 1.32 0.00 98 1016.1
20260904041604 68 118 1.0 4.0 0.00 1.32 0.00 98 1016.1
20260904041503 68 116 1.0 4.0 0.00 1.32 0.00 98 1016.2
20260904041403 68 115 1.0 4.0 0.00 1.32 0.00 98 1016.2
20260904041303 68 113 1.0 4.0 0.01 1.32 0.00 98 1016.2
20260904041203 68 109 0.0 4.0 0.02 1.32 0.00 98 1016.5
20260904041103 68 116 0.0 4.0 0.04 1.32 0.00 98 1016.5
20260904041003 68 119 0.0 4.0 0.04 1.32 0.00 98 1016.5
20260904040904 68 123 0.0 2.0 0.04 1.32 0.00 98 1016.4
20260904040803 68 125 0.0 2.0 0.04 1.32 0.00 98 1016.2
20260904040704 68 123 0.0 2.0 0.04 1.32 0.00 98 1016.2
20260904040604 68 115 0.0 2.0 0.04 1.32 0.00 98 1016.2
20260904040525 68 115 0.0 2.0 0.04 1.32 0.00 98 1016.3
20260904040403 68 115 0.0 2.0 0.04 1.32 0.00 98 1016.5
20260904040303 68 112 0.0 2.0 0.04 1.32 0.00 98 1016.3
20260904040203 68 112 0.0 2.0 0.04 1.32 0.00 98 1016.4
20260904040104 68 121 1.0 6.0 0.04 1.32 0.00 98 1016.2
20260904040004 68 127 1.0 6.0 0.04 1.32 0.00 98 1016.3
20260904035924 68 130 1.0 6.0 0.04 1.32 1.32 98 1016.2
20260904035804 68 134 1.0 6.0 0.04 1.32 1.32 98 1016.2
20260904035703 68 133 1.0 6.0 0.04 1.32 1.32 98 1016.2
20260904035604 68 135 1.0 6.0 0.04 1.32 1.32 98 1015.9
20260904035503 68 131 2.0 6.0 0.04 1.32 1.32 98 1016.0
20260904035403 68 131 2.0 8.0 0.04 1.32 1.32 98 1015.7
20260904035306 68 132 2.0 8.0 0.04 1.32 1.32 98 1016.0
20260904035204 68 131 2.0 8.0 0.04 1.32 1.32 98 1015.7
20260904035104 68 129 2.0 8.0 0.04 1.32 1.32 98 1015.9
20260904035004 68 129 2.0 8.0 0.04 1.32 1.32 98 1015.9
20260904034904 68 127 2.0 8.0 0.04 1.32 1.32 98 1015.5
20260904034803 68 133 2.0 9.0 0.04 1.32 1.32 98 1016.0
20260904034703 68 136 3.0 9.0 0.04 1.32 1.32 98 1015.7
20260904034603 68 139 3.0 9.0 0.04 1.32 1.32 98 1015.7
20260904034503 68 144 3.0 9.0 0.04 1.32 1.32 98 1015.9
20260904034403 68 148 3.0 9.0 0.04 1.32 1.32 98 1015.9
20260904034304 68 149 3.0 9.0 0.04 1.32 1.32 98 1015.7
20260904034203 68 152 3.0 9.0 0.04 1.32 1.32 98 1015.9
20260904034104 68 154 3.0 9.0 0.04 1.32 1.32 98 1015.5
20260904034004 68 158 3.0 9.0 0.04 1.32 1.32 98 1015.7
20260904033903 68 160 3.0 9.0 0.04 1.32 1.32 98 1015.7
20260904033804 68 157 3.0 8.0 0.04 1.32 1.32 98 1015.7
20260904033704 68 159 3.0 8.0 0.04 1.32 1.32 98 1016.0
20260904033624 68 157 3.0 8.0 0.04 1.32 1.32 98 1015.9
20260904033504 68 152 3.0 8.0 0.04 1.32 1.32 98 1016.0
20260904033425 68 150 3.0 8.0 0.04 1.32 1.32 98 1016.0
20260904033303 68 147 3.0 8.0 0.04 1.32 1.32 98 1015.6
20260904033203 68 148 3.0 8.0 0.04 1.32 1.32 98 1015.7
20260904033124 68 146 3.0 9.0 0.04 1.32 1.32 98 1015.7
20260904033024 68 147 3.0 9.0 0.04 1.32 1.32 98 1015.7
20260904032903 68 146 3.0 9.0 0.04 1.32 1.32 98 1015.7
20260904032804 68 150 3.0 9.0 0.04 1.32 1.32 98 1015.7
20260904032703 68 151 3.0 9.0 0.04 1.32 1.32 98 1015.5
20260904032603 68 153 3.0 9.0 0.04 1.32 1.32 98 1015.5
20260904032503 68 156 3.0 9.0 0.04 1.32 1.32 98 1015.5
20260904032424 68 155 3.0 9.0 0.04 1.32 1.32 98 1015.5
20260904032305 68 156 4.0 9.0 0.04 1.32 1.32 98 1015.6
20260904032203 68 155 4.0 9.0 0.04 1.32 1.32 98 1015.6
20260904032103 68 159 4.0 9.0 0.04 1.32 1.32 98 1015.5
20260904032004 68 158 3.0 9.0 0.04 1.32 1.32 98 1015.5
20260904031903 68 158 3.0 9.0 0.04 1.32 1.32 98 1015.5
20260904031803 68 156 3.0 9.0 0.04 1.32 1.32 98 1015.3
20260904031703 68 153 2.0 8.0 0.04 1.32 1.32 98 1015.5
20260904031604 68 151 2.0 8.0 0.04 1.32 1.32 98 1015.5
20260904031503 68 148 2.0 8.0 0.04 1.32 1.32 98 1015.5
20260904031424 68 149 2.0 8.0 0.04 1.32 1.32 98 1015.4
20260904031303 68 150 2.0 7.0 0.03 1.31 1.31 98 1015.4
20260904031224 68 149 1.0 7.0 0.02 1.30 1.31 98 1015.5
20260904031103 68 140 1.0 6.0 0.00 1.28 1.28 98 1015.7
20260904031003 68 140 1.0 6.0 0.00 1.28 1.28 98 1015.7
20260904030904 68 141 1.0 6.0 0.00 1.28 1.28 98 1015.9
20260904030804 68 138 1.0 6.0 0.00 1.28 1.28 98 1015.6
20260904030703 68 139 1.0 6.0 0.00 1.28 1.28 98 1015.5
20260904030603 68 140 1.0 6.0 0.00 1.28 1.28 98 1015.7
20260904030504 68 139 1.0 6.0 0.00 1.28 1.28 98 1015.9
20260904030404 68 136 1.0 7.0 0.00 1.28 1.28 98 1015.7
20260904030304 68 134 1.0 7.0 0.00 1.28 1.28 98 1015.7
20260904030204 68 133 1.0 7.0 0.00 1.28 1.28 98 1015.7
20260904030104 68 127 1.0 7.0 0.00 1.28 1.28 98 1015.6
20260904030004 68 129 1.0 7.0 0.00 1.28 1.28 98 1015.5
20260904025903 68 133 2.0 7.0 0.00 1.28 1.28 98 1015.6
20260904025803 68 136 2.0 7.0 0.00 1.28 1.28 98 1015.4
20260904025704 68 140 2.0 7.0 0.00 1.28 1.28 98 1015.5
20260904025603 68 139 2.0 7.0 0.00 1.28 1.28 98 1015.5
20260904025503 68 143 2.0 7.0 0.00 1.28 1.28 98 1015.5
20260904025424 68 138 2.0 6.0 0.00 1.28 1.28 98 1015.7
20260904025306 68 138 2.0 6.0 0.00 1.28 1.28 98 1015.4
20260904025203 68 139 1.0 6.0 0.00 1.28 1.28 98 1015.6
20260904025104 68 140 1.0 6.0 0.00 1.28 1.28 98 1015.5
20260904025004 68 139 1.0 6.0 0.00 1.28 1.28 98 1015.7
20260904024904 68 133 1.0 6.0 0.00 1.28 1.28 98 1015.6
20260904024804 68 128 1.0 6.0 0.00 1.28 1.28 98 1015.6
20260904024724 68 123 1.0 4.0 0.00 1.28 1.28 98 1015.6
20260904024604 68 121 1.0 4.0 0.00 1.28 1.28 98 1015.6
20260904024525 68 120 1.0 4.0 0.00 1.28 1.28 98 1015.9
20260904024403 68 127 1.0 4.0 0.00 1.28 1.28 98 1015.7
20260904024303 68 126 1.0 7.0 0.00 1.28 1.28 98 1015.6
20260904024225 68 123 1.0 7.0 0.00 1.28 1.28 98 1016.0
20260904024103 68 130 1.0 7.0 0.00 1.28 1.28 98 1016.0
20260904024003 68 129 1.0 7.0 0.00 1.28 1.28 98 1015.6
20260904023904 68 132 1.0 7.0 0.00 1.28 1.28 98 1015.7
20260904023803 68 130 2.0 7.0 0.00 1.28 1.28 98 1015.7
20260904023725 68 128 2.0 7.0 0.00 1.28 1.28 98 1015.6
20260904023604 68 130 2.0 7.0 0.00 1.28 1.28 98 1015.7
20260904023503 68 128 1.0 7.0 0.00 1.28 1.28 98 1015.7
20260904023404 68 127 1.0 7.0 0.00 1.28 1.28 98 1015.5
20260904023304 68 128 1.0 7.0 0.00 1.28 1.28 98 1015.6
20260904023224 68 136 1.0 7.0 0.00 1.28 1.28 98 1015.6
20260904023103 68 128 1.0 7.0 0.00 1.28 1.28 98 1015.7
20260904023004 68 137 1.0 7.0 0.00 1.28 1.28 98 1015.9
20260904022903 68 134 1.0 7.0 0.00 1.28 1.28 98 1015.5
20260904022803 68 135 1.0 7.0 0.00 1.28 1.28 98 1015.7
20260904022703 68 135 1.0 7.0 0.00 1.28 1.28 98 1015.9
20260904022603 68 131 2.0 7.0 0.00 1.28 1.28 98 1015.7
20260904022503 68 132 2.0 7.0 0.00 1.28 1.28 98 1015.5
20260904022404 68 132 2.0 7.0 0.00 1.28 1.28 98 1015.5
20260904022305 68 131 2.0 7.0 0.00 1.28 1.28 98 1016.0
20260904022203 68 126 2.0 7.0 0.00 1.28 1.28 98 1016.0
20260904022124 68 126 2.0 7.0 0.00 1.28 1.28 98 1016.0
20260904022003 68 125 2.0 7.0 0.00 1.28 1.28 98 1015.9
20260904021924 68 123 2.0 7.0 0.00 1.28 1.28 98 1015.9
20260904021803 68 124 2.0 7.0 0.00 1.28 1.28 98 1016.0
20260904021703 68 124 2.0 7.0 0.00 1.28 1.28 98 1015.7
20260904021624 68 127 2.0 9.0 0.00 1.28 1.28 98 1015.9
20260904021503 68 126 2.0 9.0 0.00 1.28 1.28 98 1015.7
20260904021424 68 126 2.0 9.0 0.00 1.28 1.28 98 1015.5
20260904021303 68 125 2.0 9.0 0.00 1.28 1.28 98 1015.6
20260904021204 68 127 2.0 9.0 0.00 1.28 1.28 98 1015.6
20260904021104 68 128 2.0 9.0 0.00 1.28 1.28 98 1015.5
20260904021003 68 127 2.0 9.0 0.00 1.28 1.28 98 1015.6
20260904020924 68 131 2.0 9.0 0.00 1.28 1.28 98 1015.7
20260904020804 68 130 2.0 9.0 0.00 1.28 1.28 98 1015.6
20260904020704 68 129 2.0 9.0 0.00 1.28 1.28 98 1015.3
20260904020603 68 128 2.0 6.0 0.00 1.28 1.28 98 1015.6
20260904020503 68 129 2.0 6.0 0.00 1.28 1.28 98 1015.5
20260904020403 68 131 2.0 7.0 0.00 1.28 1.28 98 1015.4
20260904020303 68 139 2.0 9.0 0.00 1.28 1.28 98 1015.2
20260904020203 68 141 2.0 9.0 0.00 1.28 1.28 98 1015.4
20260904020004 68 143 2.0 9.0 0.00 1.28 1.28 98 1015.5
20260904015903 68 142 2.0 9.0 0.00 1.28 1.28 98 1015.3
20260904015803 68 144 2.0 9.0 0.00 1.28 1.28 98 1015.1
20260904015703 68 145 2.0 9.0 0.00 1.28 1.28 98 1015.2
20260904015604 68 144 2.0 9.0 0.00 1.28 1.28 98 1015.2
20260904015503 68 144 2.0 9.0 0.00 1.28 1.28 98 1015.1
20260904015424 68 145 2.0 9.0 0.00 1.28 1.28 98 1015.1
20260904015306 68 139 1.0 6.0 0.00 1.28 1.28 98 1015.2
20260904015203 68 139 1.0 6.0 0.00 1.28 1.28 98 1015.1
20260904015125 68 137 1.0 6.0 0.00 1.28 1.28 98 1015.0
20260904015004 68 133 1.0 3.0 0.00 1.28 1.28 98 1015.0
20260904014904 68 133 1.0 3.0 0.00 1.28 1.28 98 1014.9
20260904014803 68 136 1.0 3.0 0.00 1.28 1.28 98 1015.0
20260904014703 68 142 1.0 3.0 0.00 1.28 1.28 98 1015.0
20260904014603 68 143 1.0 3.0 0.00 1.28 1.28 98 1015.0
20260904014503 68 142 1.0 3.0 0.00 1.28 1.28 98 1015.3
20260904014403 68 141 1.0 3.0 0.00 1.28 1.28 98 1015.1
20260904014303 68 136 1.0 3.0 0.00 1.28 1.28 98 1015.0
20260904014225 68 137 1.0 3.0 0.00 1.28 1.28 98 1015.0
20260904014125 68 138 1.0 3.0 0.00 1.28 1.28 98 1015.0
20260904014003 68 139 1.0 3.0 0.00 1.28 1.28 98 1015.0
20260904013924 68 139 1.0 3.0 0.00 1.28 1.28 98 1015.0
20260904013803 68 135 1.0 3.0 0.00 1.28 1.28 98 1015.0
20260904013703 68 126 1.0 3.0 0.00 1.28 1.28 98 1014.8
20260904013603 68 125 1.0 3.0 0.00 1.28 1.28 98 1014.9
20260904013504 68 125 0.0 3.0 0.00 1.28 1.28 98 1014.9
20260904013404 68 125 0.0 4.0 0.00 1.28 1.28 98 1015.0
20260904013304 68 129 0.0 4.0 0.00 1.28 1.28 98 1015.0
20260904013225 68 126 0.0 4.0 0.00 1.28 1.28 98 1015.0
20260904013104 68 130 1.0 4.0 0.00 1.28 1.28 98 1015.1
20260904013003 68 130 1.0 4.0 0.00 1.28 1.28 98 1015.2
20260904012925 68 129 1.0 4.0 0.00 1.28 1.28 98 1015.2
20260904012824 68 128 1.0 4.0 0.00 1.28 1.28 98 1015.3
20260904012703 68 128 1.0 4.0 0.00 1.28 1.28 98 1015.1
20260904012625 68 128 1.0 4.0 0.00 1.28 1.28 98 1015.1
20260904012524 68 129 1.0 6.0 0.00 1.28 1.28 98 1015.0
20260904012403 68 132 1.0 6.0 0.00 1.28 1.28 98 1015.2
20260904012306 68 131 1.0 6.0 0.00 1.28 1.28 98 1015.2
20260904012225 68 132 1.0 6.0 0.00 1.28 1.28 98 1015.2
20260904012103 68 133 1.0 6.0 0.00 1.28 1.28 98 1015.3
20260904012003 68 133 1.0 6.0 0.00 1.28 1.28 98 1015.2
20260904011903 68 134 1.0 6.0 0.00 1.28 1.28 98 1015.2
20260904011803 68 136 1.0 6.0 0.00 1.28 1.28 98 1015.4
20260904011703 68 136 1.0 6.0 0.00 1.28 1.28 98 1015.3
20260904011603 68 136 1.0 6.0 0.00 1.28 1.28 98 1015.5
20260904011525 68 140 1.0 6.0 0.00 1.28 1.28 98 1015.4
20260904011404 68 135 1.0 4.0 0.00 1.28 1.28 98 1015.5
20260904011303 68 135 1.0 4.0 0.00 1.28 1.28 98 1015.6
20260904011204 68 133 1.0 4.0 0.00 1.28 1.28 98 1015.6
20260904011124 68 133 1.0 4.0 0.00 1.28 1.28 98 1015.6
20260904011024 68 133 1.0 4.0 0.00 1.28 1.28 98 1015.5
20260904010903 68 132 1.0 4.0 0.01 1.28 1.28 98 1015.7
20260904010803 68 132 1.0 4.0 0.01 1.28 1.28 98 1015.7
20260904010703 68 132 2.0 4.0 0.01 1.28 1.28 98 1015.7
20260904010604 68 132 2.0 4.0 0.01 1.28 1.28 98 1015.5
20260904010504 68 129 1.0 4.0 0.01 1.28 1.28 98 1015.6
20260904010403 68 129 1.0 4.0 0.01 1.28 1.28 98 1015.5
20260904010304 68 128 1.0 4.0 0.01 1.28 1.28 98 1015.6
20260904010203 68 126 1.0 3.0 0.01 1.28 1.28 98 1015.4
20260904010103 68 125 1.0 3.0 0.01 1.28 1.28 98 1015.6
20260904010004 68 126 1.0 3.0 0.01 1.28 1.28 98 1015.7
20260904005903 68 125 1.0 3.0 0.01 1.28 1.28 98 1015.6
20260904005824 68 126 1.0 3.0 0.01 1.28 1.28 98 1015.5
20260904005703 68 122 1.0 3.0 0.01 1.28 1.28 98 1015.6
20260904005604 68 117 0.0 2.0 0.02 1.28 1.28 98 1015.6
20260904005503 68 118 1.0 3.0 0.02 1.28 1.28 98 1015.7
20260904005404 68 118 1.0 3.0 0.02 1.28 1.28 98 1015.6
20260904005306 68 119 1.0 3.0 0.02 1.28 1.28 97 1015.6
20260904005204 68 125 1.0 4.0 0.02 1.28 1.28 98 1015.5
20260904005103 68 127 1.0 4.0 0.02 1.28 1.28 98 1015.6
20260904005004 68 126 1.0 4.0 0.02 1.28 1.28 98 1015.6
20260904004903 68 126 1.0 4.0 0.02 1.28 1.28 98 1015.4
20260904004803 68 126 1.0 4.0 0.02 1.28 1.28 98 1015.5
20260904004703 68 127 1.0 4.0 0.02 1.28 1.28 98 1015.6
20260904004604 68 127 1.0 4.0 0.02 1.28 1.28 98 1015.6
20260904004503 68 131 1.0 4.0 0.02 1.28 1.28 98 1015.5
20260904004403 68 133 1.0 8.0 0.02 1.28 1.28 98 1015.5
20260904004303 68 133 1.0 8.0 0.02 1.28 1.28 98 1015.5
20260904004203 68 131 1.0 8.0 0.02 1.28 1.28 97 1015.5
20260904004104 68 129 1.0 8.0 0.03 1.28 1.28 98 1015.3
20260904004003 68 132 1.0 8.0 0.03 1.28 1.28 97 1015.5
20260904003903 68 133 1.0 8.0 0.03 1.28 1.28 97 1015.4
20260904003803 68 133 2.0 8.0 0.03 1.28 1.28 97 1015.4
20260904003703 68 134 2.0 8.0 0.03 1.28 1.28 97 1015.5
20260904003603 68 135 2.0 8.0 0.03 1.28 1.28 97 1015.5
20260904003524 68 133 2.0 8.0 0.04 1.28 1.28 97 1015.6
20260904003403 68 134 2.0 6.0 0.04 1.28 1.28 98 1015.7
20260904003325 68 135 2.0 6.0 0.04 1.28 1.28 98 1015.6
20260904003204 68 136 2.0 6.0 0.04 1.28 1.28 98 1015.6
20260904003103 68 137 2.0 6.0 0.04 1.28 1.28 98 1015.6
20260904003003 68 135 2.0 6.0 0.05 1.28 1.28 97 1015.9
20260904002903 68 136 2.0 6.0 0.05 1.28 1.28 98 1015.9
20260904002803 68 135 2.0 6.0 0.05 1.28 1.28 98 1015.7
20260904002724 68 136 2.0 6.0 0.05 1.28 1.28 97 1015.7
20260904002624 68 135 2.0 6.0 0.05 1.28 1.28 97 1015.7
20260904002524 68 136 2.0 6.0 0.05 1.28 1.28 98 1015.7
20260904002403 68 135 2.0 4.0 0.05 1.28 1.28 97 1015.9
20260904002306 68 133 2.0 4.0 0.06 1.28 1.28 97 1015.7
20260904002203 68 131 2.0 6.0 0.06 1.28 1.28 98 1016.1
20260904002104 68 129 1.0 6.0 0.06 1.28 1.28 98 1016.1
20260904002004 68 129 1.0 6.0 0.06 1.28 1.28 98 1016.1
20260904001903 68 124 1.0 6.0 0.06 1.28 1.28 98 1015.9
20260904001803 68 123 1.0 6.0 0.06 1.28 1.28 98 1016.1
20260904001703 68 119 1.0 6.0 0.07 1.28 1.28 98 1016.0
20260904001603 68 119 1.0 6.0 0.07 1.28 1.28 98 1016.0
20260904001503 68 118 1.0 6.0 0.07 1.28 1.28 98 1015.9
20260904001424 68 117 1.0 6.0 0.07 1.28 1.28 98 1015.9
20260904001303 68 119 1.0 6.0 0.08 1.28 1.28 98 1015.6
20260904001204 68 117 1.0 4.0 0.08 1.28 1.28 98 1015.6
20260904001103 68 117 1.0 4.0 0.08 1.28 1.28 98 1015.6
20260904001003 68 115 1.0 4.0 0.08 1.28 1.28 98 1015.5
20260904000904 68 117 1.0 4.0 0.07 1.27 1.27 98 1015.6
20260904000803 68 116 1.0 3.0 0.07 1.27 1.27 98 1015.6
20260904000703 68 120 1.0 3.0 0.08 1.27 1.27 98 1015.9
20260904000604 68 121 1.0 3.0 0.08 1.27 1.27 98 1015.9
20260904000504 68 122 1.0 3.0 0.08 1.27 1.27 98 1016.0
20260904000425 68 123 1.0 3.0 0.08 1.27 1.27 98 1016.1
20260904000304 68 120 1.0 3.0 0.09 1.27 1.27 98 1016.1
20260904000204 68 121 1.0 3.0 0.09 1.27 1.27 98 1016.2
20260904000103 68 122 1.0 3.0 0.09 1.27 1.27 98 1016.2
20260904000003 68 122 1.0 3.0 0.10 1.27 1.27 98 1016.2
20260903235903 68 122 1.0 3.0 0.10 1.27 1.27 98 1016.0
20260903235804 68 122 1.0 3.0 0.10 1.27 1.27 98 1016.2
20260903235704 68 120 0.0 3.0 0.11 1.27 1.27 98 1016.2
20260903235625 68 118 0.0 3.0 0.10 1.26 1.27 98 1016.4
20260903235504 68 119 0.0 2.0 0.11 1.26 1.26 98 1016.4
20260903235403 68 119 0.0 2.0 0.11 1.26 1.26 98 1016.5
20260903235305 68 122 0.0 2.0 0.12 1.26 1.26 98 1016.4
20260903235224 69 121 0.0 2.0 0.12 1.26 1.26 98 1016.7
20260903235104 69 118 0.0 2.0 0.13 1.26 1.26 98 1016.5
20260903235004 69 118 0.0 2.0 0.13 1.26 1.26 98 1016.5
20260903234924 69 118 0.0 2.0 0.13 1.26 1.26 98 1016.5
20260903234803 69 118 0.0 2.0 0.13 1.26 1.26 98 1016.7
20260903234703 69 117 0.0 2.0 0.14 1.26 1.26 98 1016.8
20260903234603 69 117 0.0 2.0 0.14 1.26 1.26 98 1017.0
20260903234503 69 117 0.0 2.0 0.15 1.26 1.26 98 1017.2
20260903234403 69 117 0.0 2.0 0.16 1.26 1.26 98 1017.2
20260903234303 69 110 0.0 2.0 0.17 1.26 1.26 98 1016.9
20260903234204 69 116 0.0 2.0 0.18 1.26 1.26 98 1017.1
20260903234103 69 114 0.0 1.0 0.19 1.25 1.25 98 1017.1
20260903234003 69 114 0.0 1.0 0.20 1.25 1.25 97 1017.2
20260903233903 69 114 0.0 1.0 0.23 1.25 1.25 98 1017.2
20260903233803 69 114 0.0 1.0 0.26 1.25 1.25 97 1017.4
20260903233704 69 0 0.0 0.0 0.30 1.25 1.25 97 1017.4
20260903233603 69 0 0.0 0.0 0.33 1.25 1.25 97 1017.3
20260903233503 69 0 0.0 0.0 0.36 1.24 1.24 97 1017.5
20260903233404 69 0 0.0 0.0 0.40 1.24 1.24 97 1017.5
20260903233324 69 0 0.0 0.0 0.41 1.24 1.24 97 1017.6
20260903233203 68 0 0.0 0.0 0.43 1.24 1.24 97 1017.7
20260903233125 68 0 0.0 0.0 0.45 1.24 1.24 97 1017.7
20260903233003 68 0 0.0 0.0 0.47 1.23 1.23 97 1017.8
20260903232903 69 0 0.0 0.0 0.49 1.23 1.23 97 1017.9
20260903232804 69 0 0.0 0.0 0.51 1.23 1.23 97 1017.7
20260903232704 69 0 0.0 0.0 0.55 1.23 1.23 97 1018.1
20260903232603 69 103 0.0 1.0 0.59 1.23 1.23 97 1017.8
20260903232504 69 110 0.0 1.0 0.67 1.23 1.23 97 1018.1
20260903232403 68 179 0.0 2.0 0.71 1.23 1.23 97 1018.0
20260903232306 68 150 0.0 2.0 0.73 1.22 1.22 97 1018.1
20260903232203 68 147 0.0 2.0 0.74 1.22 1.22 97 1018.1
20260903232103 68 158 0.0 3.0 0.75 1.22 1.22 97 1018.2
20260903232003 68 201 1.0 3.0 0.76 1.22 1.22 97 1018.4
20260903231925 68 205 1.0 3.0 0.76 1.22 1.22 97 1018.4
20260903231803 68 183 1.0 3.0 0.76 1.22 1.22 97 1018.4
20260903231704 68 134 1.0 3.0 0.76 1.21 1.21 97 1018.4
20260903231625 68 122 1.0 3.0 0.78 1.21 1.21 97 1018.4
20260903231503 68 29 1.0 3.0 0.80 1.21 1.21 97 1018.4
20260903231403 68 4 2.0 7.0 0.81 1.21 1.21 97 1018.4
20260903231303 68 357 2.0 7.0 0.81 1.20 1.20 97 1018.6
20260903231224 68 10 2.0 7.0 0.81 1.20 1.20 97 1018.6
20260903231103 68 18 2.0 7.0 0.81 1.20 1.20 97 1018.5
20260903231004 68 37 2.0 7.0 0.82 1.20 1.20 97 1018.5
20260903230904 68 48 2.0 7.0 0.82 1.20 1.20 97 1018.6
20260903230803 68 51 2.0 7.0 0.82 1.20 1.20 97 1018.4
20260903230704 68 43 2.0 7.0 0.81 1.19 1.19 97 1018.4
20260903230603 68 49 2.0 7.0 0.82 1.19 1.19 97 1018.3
20260903230503 68 48 2.0 7.0 0.82 1.19 1.19 97 1018.3
20260903230404 68 43 3.0 7.0 0.82 1.19 1.19 97 1018.4
20260903230303 68 42 3.0 7.0 0.81 1.18 1.18 97 1018.1
20260903230203 68 33 3.0 7.0 0.81 1.18 1.18 97 1018.0
20260903230104 68 27 3.0 8.0 0.81 1.18 1.18 97 1018.0
20260903230025 68 32 3.0 8.0 0.80 1.17 1.18 97 1018.2
20260903225903 68 20 3.0 8.0 0.80 1.17 1.17 97 1018.0
20260903225803 68 22 3.0 8.0 0.81 1.17 1.17 97 1018.3
20260903225704 68 29 3.0 8.0 0.80 1.16 1.16 97 1018.0
20260903225603 68 29 3.0 8.0 0.80 1.16 1.16 97 1018.0
20260903225503 68 40 3.0 8.0 0.79 1.15 1.15 97 1018.1
20260903225404 68 43 3.0 8.0 0.80 1.15 1.15 97 1017.9
20260903225306 68 51 3.0 8.0 0.81 1.14 1.14 97 1018.0
20260903225203 68 50 3.0 8.0 0.81 1.14 1.14 97 1017.9
20260903225103 68 48 3.0 8.0 0.80 1.13 1.13 97 1017.7
20260903225004 68 49 3.0 8.0 0.80 1.13 1.13 97 1017.7
20260903224904 68 55 3.0 8.0 0.80 1.13 1.13 97 1017.7
20260903224804 68 46 3.0 8.0 0.80 1.13 1.13 97 1017.5
20260903224703 68 42 3.0 8.0 0.79 1.12 1.12 96 1017.5
20260903224603 68 40 3.0 8.0 0.79 1.12 1.12 96 1017.6
20260903224524 68 34 3.0 8.0 0.78 1.11 1.11 96 1017.4
20260903224404 68 35 3.0 8.0 0.77 1.10 1.10 96 1017.7
20260903224304 68 30 3.0 8.0 0.76 1.09 1.09 96 1017.8
20260903224203 68 30 3.0 8.0 0.75 1.08 1.08 96 1017.9
20260903224104 68 30 3.0 7.0 0.73 1.06 1.06 96 1017.6
20260903224003 69 22 3.0 7.0 0.72 1.05 1.05 96 1017.6
20260903223903 69 16 3.0 8.0 0.69 1.02 1.02 96 1017.7
20260903223803 69 21 3.0 8.0 0.66 0.99 0.99 96 1017.9
20260903223704 69 22 3.0 8.0 0.62 0.95 0.95 96 1018.0
20260903223603 69 11 4.0 8.0 0.59 0.92 0.92 96 1018.2
20260903223504 69 10 4.0 14.0 0.55 0.88 0.88 95 1018.4
20260903223403 69 3 4.0 14.0 0.51 0.84 0.84 95 1018.7
20260903223304 69 4 4.0 17.0 0.50 0.83 0.83 95 1018.9
20260903223224 69 340 5.0 17.0 0.48 0.81 0.82 95 1019.0
20260903223125 69 351 5.0 17.0 0.46 0.79 0.79 95 1019.0
20260903223024 69 2 6.0 23.0 0.43 0.76 0.76 95 1019.0
20260903222903 69 8 6.0 23.0 0.41 0.74 0.74 94 1018.9
20260903222824 69 9 6.0 23.0 0.39 0.72 0.73 94 1019.2
20260903222703 69 7 6.0 23.0 0.35 0.68 0.68 94 1019.0
20260903222603 70 8 6.0 23.0 0.31 0.64 0.64 93 1018.6
20260903222503 70 10 6.0 23.0 0.23 0.56 0.56 93 1018.2
20260903222424 71 15 6.0 23.0 0.19 0.52 0.53 92 1018.2
20260903222305 71 16 5.0 23.0 0.16 0.49 0.49 92 1017.3
20260903222203 72 30 5.0 23.0 0.15 0.48 0.48 91 1016.9
20260903222103 73 33 4.0 23.0 0.14 0.47 0.47 91 1016.5
20260903222003 73 30 3.0 11.0 0.13 0.46 0.46 92 1015.9
20260903221903 73 34 3.0 11.0 0.13 0.46 0.46 92 1015.4
20260903221824 73 34 3.0 11.0 0.13 0.46 0.46 92 1015.4
20260903221704 74 41 2.0 11.0 0.12 0.45 0.45 92 1015.3
20260903221625 76 60 2.0 10.0 0.10 0.43 0.44 93 1015.3
20260903221504 76 74 1.0 8.0 0.08 0.41 0.41 94 1015.7
20260903221403 76 81 1.0 3.0 0.07 0.40 0.40 94 1016.1
20260903221324 77 82 1.0 3.0 0.06 0.39 0.39 94 1016.1
20260903221203 77 96 0.0 2.0 0.06 0.39 0.39 94 1016.0
20260903221103 77 98 0.0 2.0 0.06 0.39 0.39 94 1016.2
20260903221004 77 94 0.0 2.0 0.05 0.38 0.38 94 1016.2
20260903220903 77 94 0.0 2.0 0.05 0.38 0.38 93 1015.9
20260903220803 77 91 0.0 2.0 0.05 0.38 0.38 93 1015.6
20260903220703 77 0 0.0 0.0 0.05 0.38 0.38 93 1015.6
20260903220624 77 0 0.0 0.0 0.04 0.37 0.38 93 1015.4
20260903220525 77 0 0.0 0.0 0.04 0.37 0.37 93 1015.3
20260903220404 77 0 0.0 0.0 0.04 0.37 0.37 93 1015.4
20260903220303 77 0 0.0 0.0 0.04 0.37 0.37 92 1015.3
20260903220204 77 0 0.0 0.0 0.04 0.37 0.37 92 1015.4
20260903220104 77 0 0.0 0.0 0.04 0.37 0.37 92 1015.3
20260903220024 78 0 0.0 0.0 0.04 0.37 0.37 92 1015.0
20260903215903 78 0 0.0 0.0 0.04 0.37 0.37 92 1015.1
20260903215803 78 0 0.0 0.0 0.03 0.36 0.36 92 1015.1
20260903215704 78 0 0.0 0.0 0.03 0.36 0.36 91 1015.0
20260903215604 78 0 0.0 0.0 0.03 0.36 0.36 91 1014.9
20260903215503 78 0 0.0 0.0 0.03 0.36 0.36 91 1014.9
20260903215404 78 0 0.0 0.0 0.02 0.35 0.35 90 1015.1
20260903215306 78 0 0.0 0.0 0.00 0.33 0.34 90 1014.8
20260903215225 78 0 0.0 0.0 0.00 0.33 0.33 90 1014.9
20260903215103 79 0 0.0 0.0 0.00 0.33 0.33 90 1014.8
20260903215003 78 0 0.0 0.0 0.00 0.33 0.33 90 1015.0
20260903214903 78 0 0.0 0.0 0.00 0.33 0.33 89 1014.8
20260903214803 78 0 0.0 0.0 0.00 0.33 0.33 89 1014.9
20260903214703 78 0 0.0 0.0 0.00 0.33 0.33 89 1014.9
20260903214603 78 0 0.0 0.0 0.00 0.33 0.33 89 1014.8
20260903214503 78 0 0.0 0.0 0.00 0.33 0.33 89 1015.0
20260903214404 78 0 0.0 0.0 0.00 0.33 0.33 90 1014.7
20260903214303 78 0 0.0 0.0 0.00 0.33 0.33 89 1014.8
20260903214203 78 0 0.0 0.0 0.00 0.33 0.33 90 1015.0
20260903214103 78 0 0.0 0.0 0.00 0.33 0.33 89 1014.8
20260903214003 78 0 0.0 0.0 0.00 0.33 0.33 89 1014.9
20260903213903 78 0 0.0 0.0 0.00 0.33 0.33 89 1015.1
20260903213803 78 0 0.0 0.0 0.00 0.33 0.33 89 1015.1
20260903213704 78 100 0.0 1.0 0.00 0.33 0.33 89 1015.1
20260903213604 78 100 0.0 1.0 0.00 0.33 0.33 89 1015.1
20260903213504 78 100 0.0 1.0 0.00 0.33 0.33 89 1015.0
20260903213404 78 100 0.0 1.0 0.00 0.33 0.33 89 1015.1
20260903213303 78 100 0.0 1.0 0.00 0.33 0.33 89 1014.9
20260903213203 78 100 0.0 1.0 0.00 0.33 0.33 89 1015.0
20260903213104 78 100 0.0 1.0 0.00 0.33 0.33 89 1014.9
20260903213003 78 100 0.0 1.0 0.00 0.33 0.33 89 1014.9
20260903212903 79 100 0.0 1.0 0.00 0.33 0.33 89 1014.6
20260903212804 79 100 0.0 1.0 0.00 0.33 0.33 88 1014.8
20260903212704 79 0 0.0 0.0 0.00 0.33 0.33 88 1014.7
20260903212624 79 0 0.0 0.0 0.00 0.33 0.33 88 1014.8
20260903212503 79 102 0.0 1.0 0.00 0.33 0.33 87 1014.6
20260903212403 79 113 0.0 2.0 0.00 0.33 0.33 87 1014.6
20260903212324 79 108 0.0 3.0 0.00 0.33 0.33 87 1014.9
20260903212203 79 108 0.0 3.0 0.00 0.33 0.33 87 1014.7
20260903212104 80 108 0.0 3.0 0.00 0.33 0.33 87 1014.7
20260903212004 80 109 0.0 3.0 0.00 0.33 0.33 86 1014.8
20260903211924 80 109 0.0 3.0 0.00 0.33 0.33 86 1014.8
20260903211803 80 109 0.0 3.0 0.00 0.33 0.33 87 1014.7
20260903211703 80 109 0.0 3.0 0.00 0.33 0.33 87 1014.8
20260903211603 80 109 0.0 3.0 0.00 0.33 0.33 86 1014.7
20260903211504 80 109 0.0 3.0 0.00 0.33 0.33 86 1014.6
20260903211403 80 107 0.0 3.0 0.00 0.33 0.33 85 1014.6
20260903211303 80 110 0.0 1.0 0.00 0.33 0.33 86 1014.5
20260903211203 80 110 0.0 1.0 0.00 0.33 0.33 85 1014.5
20260903211104 80 111 0.0 1.0 0.00 0.33 0.33 86 1014.4
20260903211004 80 110 0.0 1.0 0.00 0.33 0.33 85 1014.4
20260903210904 80 109 0.0 1.0 0.00 0.33 0.33 85 1014.3
20260903210803 81 107 0.0 1.0 0.00 0.33 0.33 84 1014.2
20260903210704 81 107 0.0 1.0 0.00 0.33 0.33 86 1014.2
20260903210603 81 107 0.0 1.0 0.00 0.33 0.33 86 1014.2
20260903210503 81 107 0.0 1.0 0.00 0.33 0.33 86 1014.1
20260903210403 81 107 0.0 1.0 0.00 0.33 0.33 85 1014.1
20260903210324 81 107 0.0 1.0 0.00 0.33 0.33 85 1014.1
20260903210204 81 107 0.0 1.0 0.00 0.33 0.33 85 1014.1
20260903210024 81 107 0.0 1.0 0.00 0.33 0.33 85 1013.9
20260903205904 82 107 0.0 1.0 0.00 0.33 0.33 84 1013.8
20260903205824 82 107 0.0 1.0 0.00 0.33 0.33 83 1013.6
20260903205704 82 0 0.0 0.0 0.00 0.33 0.33 83 1013.7
20260903205603 82 0 0.0 0.0 0.00 0.33 0.33 84 1013.5
20260903205504 82 0 0.0 0.0 0.00 0.33 0.33 83 1013.5
20260903205403 82 0 0.0 0.0 0.00 0.33 0.33 83 1013.7
20260903205306 82 0 0.0 0.0 0.00 0.33 0.33 83 1013.6
20260903205225 82 0 0.0 0.0 0.00 0.33 0.33 83 1013.5
20260903205103 82 0 0.0 0.0 0.00 0.33 0.33 81 1013.6
20260903205003 82 0 0.0 0.0 0.00 0.33 0.33 81 1013.6
20260903204903 82 0 0.0 0.0 0.00 0.33 0.33 81 1013.6
20260903204803 82 0 0.0 0.0 0.00 0.33 0.33 83 1013.7
20260903204703 83 0 0.0 0.0 0.00 0.33 0.33 82 1013.9
20260903204603 83 0 0.0 0.0 0.00 0.33 0.33 81 1013.9
20260903204524 83 0 0.0 0.0 0.01 0.33 0.33 82 1014.0
20260903204403 83 113 0.0 1.0 0.02 0.33 0.33 81 1013.8
20260903204304 83 113 0.0 1.0 0.03 0.33 0.33 82 1013.8
20260903204203 83 113 0.0 1.0 0.05 0.33 0.33 81 1014.0
20260903204104 83 113 0.0 1.0 0.05 0.33 0.33 79 1013.9
20260903204024 83 109 0.0 1.0 0.05 0.33 0.33 78 1014.2
20260903203924 83 109 0.0 1.0 0.06 0.33 0.33 79 1014.1
20260903203825 83 109 0.0 1.0 0.06 0.33 0.33 80 1014.2
20260903203703 83 104 0.0 1.0 0.06 0.33 0.33 80 1014.0
20260903203603 83 108 0.0 1.0 0.06 0.33 0.33 82 1014.0
20260903203504 83 138 0.0 2.0 0.07 0.33 0.33 83 1014.1
20260903203403 83 135 0.0 2.0 0.07 0.33 0.33 81 1014.0
20260903203303 83 134 0.0 2.0 0.07 0.33 0.33 83 1013.9
20260903203204 82 134 0.0 2.0 0.07 0.33 0.33 82 1013.9
20260903203125 82 134 0.0 2.0 0.07 0.33 0.33 80 1013.9
20260903203003 82 136 0.0 2.0 0.07 0.33 0.33 77 1014.0
20260903202904 82 137 0.0 2.0 0.07 0.33 0.33 78 1013.9
20260903202803 83 137 0.0 2.0 0.07 0.33 0.33 77 1013.7
20260903202724 83 138 0.0 2.0 0.07 0.33 0.33 77 1014.0
20260903202603 82 128 0.0 2.0 0.07 0.33 0.33 76 1013.7
20260903202503 82 90 0.0 2.0 0.07 0.33 0.33 79 1013.7
20260903202404 82 87 0.0 2.0 0.07 0.33 0.33 79 1013.7
20260903202306 82 76 0.0 2.0 0.07 0.33 0.33 80 1013.6
20260903202224 82 76 0.0 2.0 0.07 0.33 0.33 81 1013.5
20260903202104 82 79 0.0 2.0 0.07 0.33 0.33 80 1013.6
20260903202004 82 81 0.0 2.0 0.07 0.33 0.33 82 1013.7
20260903201903 81 86 0.0 3.0 0.07 0.33 0.33 83 1013.5
20260903201803 81 88 0.0 3.0 0.07 0.33 0.33 82 1013.5
20260903201704 82 90 0.0 3.0 0.07 0.33 0.33 81 1013.7
20260903201603 82 95 0.0 3.0 0.07 0.33 0.33 80 1013.5
20260903201503 81 100 0.0 3.0 0.07 0.33 0.33 82 1013.7
20260903201403 81 102 1.0 3.0 0.07 0.33 0.33 85 1013.4
20260903201303 80 102 1.0 3.0 0.07 0.33 0.33 87 1013.6
20260903201203 80 102 1.0 3.0 0.07 0.33 0.33 87 1013.7
20260903201103 80 103 1.0 3.0 0.07 0.33 0.33 87 1013.6
20260903201004 80 105 1.0 3.0 0.07 0.33 0.33 88 1013.6
20260903200903 80 108 1.0 2.0 0.07 0.33 0.33 88 1013.8
20260903200803 79 108 0.0 2.0 0.07 0.33 0.33 89 1013.6
20260903200703 79 109 0.0 2.0 0.07 0.33 0.33 87 1013.6
20260903200625 80 109 0.0 2.0 0.07 0.33 0.33 88 1013.6
20260903200503 79 111 0.0 2.0 0.07 0.33 0.33 89 1013.6
20260903200404 79 111 0.0 2.0 0.07 0.33 0.33 89 1013.6
20260903200303 79 113 0.0 2.0 0.07 0.33 0.33 88 1013.7
20260903200204 78 113 0.0 2.0 0.07 0.33 0.33 90 1014.0
20260903200125 78 111 0.0 2.0 0.07 0.33 0.33 90 1014.0
20260903200004 77 101 0.0 2.0 0.07 0.33 0.33 90 1013.9
20260903195904 77 101 0.0 2.0 0.07 0.33 0.33 90 1013.7